| time (UTC) | temp C | wind direction | speed KPH | gust KPH | rain 1hr cm | rain 24hr cm | rain mn cm | humidity % | barometer mb |
| 20260906175206 | 36 | 128 | 3.2 | 6.4 | 0.00 | 0.00 | 0.00 | 40 | 1018.0 |
| 20260906175103 | 36 | 119 | 3.2 | 6.4 | 0.00 | 0.00 | 0.00 | 40 | 1017.9 |
| 20260906175003 | 37 | 100 | 3.2 | 6.4 | 0.00 | 0.00 | 0.00 | 40 | 1018.0 |
| 20260906174903 | 36 | 90 | 3.2 | 6.4 | 0.00 | 0.00 | 0.00 | 41 | 1017.9 |
| 20260906174804 | 36 | 79 | 3.2 | 6.4 | 0.00 | 0.00 | 0.00 | 40 | 1018.1 |
| 20260906174703 | 36 | 63 | 3.2 | 6.4 | 0.00 | 0.00 | 0.00 | 40 | 1018.0 |
| 20260906174603 | 36 | 39 | 4.8 | 6.4 | 0.00 | 0.00 | 0.00 | 40 | 1018.0 |
| 20260906174403 | 36 | 4 | 0.0 | 6.4 | 0.00 | 0.00 | 0.00 | 41 | 1018.1 |
| 20260906174303 | 36 | 1 | 1.6 | 6.4 | 0.00 | 0.00 | 0.00 | 41 | 1018.1 |
| 20260906174203 | 36 | 357 | 3.2 | 6.4 | 0.00 | 0.00 | 0.00 | 40 | 1018.1 |
| 20260906174104 | 36 | 347 | 4.8 | 6.4 | 0.00 | 0.00 | 0.00 | 40 | 1018.1 |
| 20260906174003 | 36 | 335 | 3.2 | 4.8 | 0.00 | 0.00 | 0.00 | 41 | 1018.2 |
| 20260906173903 | 36 | 321 | 3.2 | 4.8 | 0.00 | 0.00 | 0.00 | 41 | 1018.2 |
| 20260906173803 | 36 | 293 | 1.6 | 4.8 | 0.00 | 0.00 | 0.00 | 42 | 1018.2 |
| 20260906173603 | 36 | 186 | 0.0 | 4.8 | 0.00 | 0.00 | 0.00 | 42 | 1018.1 |
| 20260906173503 | 36 | 176 | 1.6 | 4.8 | 0.00 | 0.00 | 0.00 | 41 | 1018.3 |
| 20260906173403 | 36 | 175 | 3.2 | 4.8 | 0.00 | 0.00 | 0.00 | 41 | 1018.3 |
| 20260906173304 | 36 | 183 | 3.2 | 4.8 | 0.00 | 0.00 | 0.00 | 42 | 1018.3 |
| 20260906173103 | 36 | 226 | 1.6 | 4.8 | 0.00 | 0.00 | 0.00 | 42 | 1018.4 |
| 20260906173003 | 36 | 252 | 1.6 | 4.8 | 0.00 | 0.00 | 0.00 | 42 | 1018.3 |
| 20260906172903 | 36 | 276 | 1.6 | 4.8 | 0.00 | 0.00 | 0.00 | 42 | 1018.4 |
| 20260906172803 | 36 | 295 | 3.2 | 4.8 | 0.00 | 0.00 | 0.00 | 41 | 1018.4 |
| 20260906172703 | 36 | 305 | 3.2 | 4.8 | 0.00 | 0.00 | 0.00 | 41 | 1018.3 |
| 20260906172503 | 36 | 307 | 0.0 | 4.8 | 0.00 | 0.00 | 0.00 | 42 | 1018.5 |
| 20260906172403 | 36 | 302 | 0.0 | 4.8 | 0.00 | 0.00 | 0.00 | 42 | 1018.6 |
| 20260906172306 | 36 | 298 | 0.0 | 4.8 | 0.00 | 0.00 | 0.00 | 42 | 1018.5 |
| 20260906172203 | 36 | 295 | 3.2 | 4.8 | 0.00 | 0.00 | 0.00 | 42 | 1018.5 |
| 20260906172103 | 36 | 267 | 3.2 | 6.4 | 0.00 | 0.00 | 0.00 | 42 | 1018.5 |
| 20260906172003 | 36 | 179 | 3.2 | 6.4 | 0.00 | 0.00 | 0.00 | 42 | 1018.6 |
| 20260906171904 | 36 | 175 | 3.2 | 6.4 | 0.00 | 0.00 | 0.00 | 42 | 1018.5 |
| 20260906171803 | 36 | 163 | 3.2 | 6.4 | 0.00 | 0.00 | 0.00 | 42 | 1018.6 |
| 20260906171703 | 36 | 151 | 1.6 | 6.4 | 0.00 | 0.00 | 0.00 | 42 | 1018.5 |
| 20260906171603 | 36 | 134 | 3.2 | 6.4 | 0.00 | 0.00 | 0.00 | 42 | 1018.5 |
| 20260906171503 | 36 | 117 | 1.6 | 6.4 | 0.00 | 0.00 | 0.00 | 42 | 1018.7 |
| 20260906171403 | 36 | 90 | 3.2 | 6.4 | 0.00 | 0.00 | 0.00 | 43 | 1018.6 |
| 20260906171304 | 36 | 68 | 3.2 | 6.4 | 0.00 | 0.00 | 0.00 | 43 | 1018.6 |
| 20260906171203 | 36 | 50 | 1.6 | 6.4 | 0.00 | 0.00 | 0.00 | 42 | 1018.7 |
| 20260906171103 | 36 | 32 | 3.2 | 6.4 | 0.00 | 0.00 | 0.00 | 42 | 1018.6 |
| 20260906171003 | 36 | 15 | 3.2 | 3.2 | 0.00 | 0.00 | 0.00 | 42 | 1018.7 |
| 20260906170903 | 36 | 22 | 1.6 | 3.2 | 0.00 | 0.00 | 0.00 | 43 | 1018.7 |
| 20260906170804 | 36 | 27 | 1.6 | 3.2 | 0.00 | 0.00 | 0.00 | 43 | 1018.8 |
| 20260906170603 | 36 | 29 | 1.6 | 3.2 | 0.00 | 0.00 | 0.00 | 43 | 1018.7 |
| 20260906170503 | 36 | 24 | 3.2 | 3.2 | 0.00 | 0.00 | 0.00 | 43 | 1018.6 |
| 20260906170403 | 36 | 20 | 3.2 | 3.2 | 0.00 | 0.00 | 0.00 | 43 | 1018.6 |
| 20260906170303 | 36 | 15 | 3.2 | 3.2 | 0.00 | 0.00 | 0.00 | 43 | 1018.7 |
| 20260906170103 | 36 | 15 | 3.2 | 4.8 | 0.00 | 0.00 | 0.00 | 44 | 1018.7 |
| 20260906170004 | 36 | 7 | 3.2 | 4.8 | 0.00 | 0.00 | 0.00 | 44 | 1018.6 |
| 20260906165903 | 36 | 1 | 3.2 | 4.8 | 0.00 | 0.00 | 0.00 | 44 | 1018.9 |
| 20260906165803 | 36 | 354 | 1.6 | 4.8 | 0.00 | 0.00 | 0.00 | 44 | 1018.9 |
| 20260906165603 | 35 | 354 | 3.2 | 6.4 | 0.00 | 0.00 | 0.00 | 44 | 1018.9 |
| 20260906165503 | 35 | 3 | 3.2 | 6.4 | 0.00 | 0.00 | 0.00 | 44 | 1018.8 |
| 20260906165403 | 35 | 5 | 1.6 | 6.4 | 0.00 | 0.00 | 0.00 | 44 | 1018.9 |
| 20260906165306 | 35 | 11 | 0.0 | 6.4 | 0.00 | 0.00 | 0.00 | 44 | 1018.9 |
| 20260906165203 | 35 | 17 | 3.2 | 6.4 | 0.00 | 0.00 | 0.00 | 45 | 1018.9 |
| 20260906165103 | 35 | 24 | 3.2 | 6.4 | 0.00 | 0.00 | 0.00 | 45 | 1018.9 |
| 20260906165003 | 35 | 32 | 3.2 | 6.4 | 0.00 | 0.00 | 0.00 | 46 | 1018.9 |
| 20260906164804 | 35 | 41 | 3.2 | 6.4 | 0.00 | 0.00 | 0.00 | 46 | 1018.8 |
| 20260906164703 | 35 | 67 | 3.2 | 6.4 | 0.00 | 0.00 | 0.00 | 46 | 1018.9 |
| 20260906164603 | 35 | 92 | 3.2 | 4.8 | 0.00 | 0.00 | 0.00 | 45 | 1018.9 |
| 20260906164503 | 35 | 75 | 1.6 | 3.2 | 0.00 | 0.00 | 0.00 | 45 | 1018.9 |
| 20260906164404 | 35 | 64 | 1.6 | 3.2 | 0.00 | 0.00 | 0.00 | 45 | 1018.9 |
| 20260906164303 | 35 | 60 | 1.6 | 3.2 | 0.00 | 0.00 | 0.00 | 45 | 1019.0 |
| 20260906164203 | 35 | 62 | 3.2 | 3.2 | 0.00 | 0.00 | 0.00 | 44 | 1019.0 |
| 20260906164003 | 35 | 137 | 0.0 | 3.2 | 0.00 | 0.00 | 0.00 | 44 | 1019.0 |
| 20260906163906 | 35 | 127 | 1.6 | 6.4 | 0.00 | 0.00 | 0.00 | 44 | 1019.0 |
| 20260906163803 | 36 | 125 | 3.2 | 6.4 | 0.00 | 0.00 | 0.00 | 43 | 1019.1 |
| 20260906163704 | 36 | 114 | 3.2 | 6.4 | 0.00 | 0.00 | 0.00 | 43 | 1019.0 |
| 20260906163603 | 36 | 96 | 3.2 | 6.4 | 0.00 | 0.00 | 0.00 | 43 | 1019.1 |
| 20260906163503 | 36 | 99 | 3.2 | 6.4 | 0.00 | 0.00 | 0.00 | 43 | 1019.0 |
| 20260906163403 | 36 | 103 | 1.6 | 6.4 | 0.00 | 0.00 | 0.00 | 43 | 1018.9 |
| 20260906163203 | 36 | 119 | 3.2 | 6.4 | 0.00 | 0.00 | 0.00 | 43 | 1019.0 |
| 20260906163004 | 36 | 116 | 3.2 | 6.4 | 0.00 | 0.00 | 0.00 | 43 | 1018.9 |
| 20260906162903 | 36 | 122 | 3.2 | 6.4 | 0.00 | 0.00 | 0.00 | 44 | 1019.0 |
| 20260906162803 | 36 | 119 | 3.2 | 4.8 | 0.00 | 0.00 | 0.00 | 44 | 1019.0 |
| 20260906162503 | 36 | 154 | 1.6 | 4.8 | 0.00 | 0.00 | 0.00 | 45 | 1018.9 |
| 20260906162406 | 35 | 173 | 1.6 | 4.8 | 0.00 | 0.00 | 0.00 | 46 | 1019.1 |
| 20260906162306 | 35 | 164 | 1.6 | 6.4 | 0.00 | 0.00 | 0.00 | 46 | 1018.9 |
| 20260906162203 | 35 | 161 | 3.2 | 8.0 | 0.00 | 0.00 | 0.00 | 46 | 1019.0 |
| 20260906162103 | 35 | 160 | 3.2 | 8.0 | 0.00 | 0.00 | 0.00 | 46 | 1018.9 |
| 20260906162004 | 35 | 148 | 1.6 | 8.0 | 0.00 | 0.00 | 0.00 | 46 | 1018.9 |
| 20260906161904 | 35 | 131 | 1.6 | 8.0 | 0.00 | 0.00 | 0.00 | 46 | 1019.1 |
| 20260906161803 | 35 | 127 | 1.6 | 8.0 | 0.00 | 0.00 | 0.00 | 46 | 1019.0 |
| 20260906161703 | 35 | 134 | 3.2 | 8.0 | 0.00 | 0.00 | 0.00 | 46 | 1019.1 |
| 20260906161603 | 34 | 135 | 1.6 | 8.0 | 0.00 | 0.00 | 0.00 | 46 | 1019.1 |
| 20260906161503 | 34 | 136 | 3.2 | 8.0 | 0.00 | 0.00 | 0.00 | 45 | 1019.0 |
| 20260906161403 | 34 | 134 | 4.8 | 8.0 | 0.00 | 0.00 | 0.00 | 45 | 1018.9 |
| 20260906161303 | 35 | 133 | 6.4 | 8.0 | 0.00 | 0.00 | 0.00 | 45 | 1019.0 |
| 20260906161203 | 35 | 128 | 6.4 | 8.0 | 0.00 | 0.00 | 0.00 | 45 | 1019.0 |
| 20260906161103 | 35 | 128 | 3.2 | 6.4 | 0.00 | 0.00 | 0.00 | 45 | 1019.0 |
| 20260906161003 | 34 | 128 | 3.2 | 6.4 | 0.00 | 0.00 | 0.00 | 46 | 1018.9 |
| 20260906160906 | 34 | 134 | 3.2 | 6.4 | 0.00 | 0.00 | 0.00 | 46 | 1019.0 |
| 20260906160803 | 34 | 136 | 3.2 | 6.4 | 0.00 | 0.00 | 0.00 | 46 | 1018.9 |
| 20260906160703 | 34 | 139 | 4.8 | 6.4 | 0.00 | 0.00 | 0.00 | 46 | 1018.9 |
| 20260906160603 | 34 | 140 | 3.2 | 6.4 | 0.00 | 0.00 | 0.00 | 48 | 1018.9 |
| 20260906160504 | 34 | 137 | 3.2 | 6.4 | 0.00 | 0.00 | 0.00 | 48 | 1019.0 |
| 20260906160403 | 34 | 141 | 3.2 | 6.4 | 0.00 | 0.00 | 0.00 | 48 | 1018.9 |
| 20260906160203 | 34 | 147 | 3.2 | 6.4 | 0.00 | 0.00 | 0.00 | 48 | 1018.9 |
| 20260906160103 | 34 | 151 | 3.2 | 6.4 | 0.00 | 0.00 | 0.00 | 48 | 1018.9 |
| 20260906160003 | 34 | 156 | 3.2 | 6.4 | 0.00 | 0.00 | 0.00 | 48 | 1018.9 |
| 20260906155904 | 34 | 169 | 3.2 | 6.4 | 0.00 | 0.00 | 0.00 | 48 | 1018.9 |
| 20260906155803 | 33 | 178 | 3.2 | 6.4 | 0.00 | 0.00 | 0.00 | 49 | 1018.9 |
| 20260906155703 | 33 | 194 | 3.2 | 6.4 | 0.00 | 0.00 | 0.00 | 49 | 1018.9 |
| 20260906155603 | 33 | 228 | 1.6 | 4.8 | 0.00 | 0.00 | 0.00 | 49 | 1018.9 |
| 20260906155503 | 33 | 227 | 3.2 | 4.8 | 0.00 | 0.00 | 0.00 | 49 | 1018.8 |
| 20260906155406 | 33 | 276 | 3.2 | 4.8 | 0.00 | 0.00 | 0.00 | 50 | 1018.7 |
| 20260906155203 | 33 | 330 | 1.6 | 4.8 | 0.00 | 0.00 | 0.00 | 50 | 1018.8 |
| 20260906155103 | 33 | 343 | 3.2 | 6.4 | 0.00 | 0.00 | 0.00 | 50 | 1018.9 |
| 20260906155003 | 33 | 352 | 3.2 | 6.4 | 0.00 | 0.00 | 0.00 | 50 | 1018.8 |
| 20260906154904 | 33 | 355 | 1.6 | 6.4 | 0.00 | 0.00 | 0.00 | 51 | 1018.8 |
| 20260906154703 | 33 | 357 | 1.6 | 6.4 | 0.00 | 0.00 | 0.00 | 51 | 1018.8 |
| 20260906154603 | 32 | 358 | 3.2 | 6.4 | 0.00 | 0.00 | 0.00 | 52 | 1018.7 |
| 20260906154503 | 32 | 348 | 1.6 | 6.4 | 0.00 | 0.00 | 0.00 | 52 | 1018.8 |
| 20260906154403 | 32 | 349 | 1.6 | 6.4 | 0.00 | 0.00 | 0.00 | 55 | 1018.7 |
| 20260906154303 | 32 | 356 | 1.6 | 6.4 | 0.00 | 0.00 | 0.00 | 55 | 1018.8 |
| 20260906154204 | 32 | 6 | 3.2 | 8.0 | 0.00 | 0.00 | 0.00 | 55 | 1018.8 |
| 20260906154003 | 32 | 48 | 3.2 | 8.0 | 0.00 | 0.00 | 0.00 | 56 | 1018.8 |
| 20260906153906 | 31 | 74 | 3.2 | 8.0 | 0.00 | 0.00 | 0.00 | 56 | 1018.7 |
| 20260906153803 | 31 | 81 | 1.6 | 8.0 | 0.00 | 0.00 | 0.00 | 57 | 1018.8 |
| 20260906153603 | 31 | 117 | 3.2 | 8.0 | 0.00 | 0.00 | 0.00 | 57 | 1018.7 |
| 20260906153503 | 31 | 114 | 3.2 | 8.0 | 0.00 | 0.00 | 0.00 | 57 | 1018.7 |
| 20260906153403 | 31 | 120 | 3.2 | 8.0 | 0.00 | 0.00 | 0.00 | 57 | 1018.6 |
| 20260906153303 | 31 | 137 | 3.2 | 8.0 | 0.00 | 0.00 | 0.00 | 57 | 1018.7 |
| 20260906153204 | 31 | 161 | 4.8 | 8.0 | 0.00 | 0.00 | 0.00 | 57 | 1018.8 |
| 20260906153103 | 31 | 183 | 4.8 | 6.4 | 0.00 | 0.00 | 0.00 | 58 | 1018.8 |
| 20260906153003 | 31 | 215 | 3.2 | 4.8 | 0.00 | 0.00 | 0.00 | 59 | 1018.7 |
| 20260906152803 | 31 | 253 | 3.2 | 3.2 | 0.00 | 0.00 | 0.00 | 59 | 1018.6 |
| 20260906152703 | 31 | 207 | 1.6 | 3.2 | 0.00 | 0.00 | 0.00 | 60 | 1018.8 |
| 20260906152604 | 31 | 295 | 3.2 | 3.2 | 0.00 | 0.00 | 0.00 | 60 | 1018.8 |
| 20260906152405 | 31 | 308 | 0.0 | 3.2 | 0.00 | 0.00 | 0.00 | 60 | 1018.7 |
| 20260906152306 | 31 | 287 | 1.6 | 4.8 | 0.00 | 0.00 | 0.00 | 60 | 1018.7 |
| 20260906152003 | 31 | 352 | 1.6 | 4.8 | 0.00 | 0.00 | 0.00 | 60 | 1018.7 |
| 20260906151903 | 31 | 6 | 1.6 | 4.8 | 0.00 | 0.00 | 0.00 | 60 | 1018.7 |
| 20260906151803 | 31 | 21 | 1.6 | 4.8 | 0.00 | 0.00 | 0.00 | 60 | 1018.7 |
| 20260906151703 | 31 | 16 | 1.6 | 4.8 | 0.00 | 0.00 | 0.00 | 60 | 1018.8 |
| 20260906151604 | 31 | 10 | 1.6 | 6.4 | 0.00 | 0.00 | 0.00 | 60 | 1018.7 |
| 20260906151504 | 31 | 10 | 3.2 | 6.4 | 0.00 | 0.00 | 0.00 | 60 | 1018.8 |
| 20260906151403 | 31 | 18 | 3.2 | 6.4 | 0.00 | 0.00 | 0.00 | 60 | 1018.7 |
| 20260906151203 | 31 | 29 | 3.2 | 6.4 | 0.00 | 0.00 | 0.00 | 60 | 1018.8 |
| 20260906151104 | 30 | 28 | 1.6 | 6.4 | 0.00 | 0.00 | 0.00 | 60 | 1018.7 |
| 20260906151004 | 30 | 34 | 3.2 | 6.4 | 0.00 | 0.00 | 0.00 | 60 | 1018.7 |
| 20260906150906 | 30 | 37 | 1.6 | 6.4 | 0.00 | 0.00 | 0.00 | 61 | 1018.7 |
| 20260906150803 | 30 | 20 | 3.2 | 6.4 | 0.00 | 0.00 | 0.00 | 61 | 1018.7 |
| 20260906150603 | 30 | 356 | 0.0 | 6.4 | 0.00 | 0.00 | 0.00 | 61 | 1018.8 |
| 20260906150503 | 30 | 351 | 0.0 | 6.4 | 0.00 | 0.00 | 0.00 | 61 | 1018.8 |
| 20260906150403 | 30 | 351 | 0.0 | 6.4 | 0.00 | 0.00 | 0.00 | 62 | 1018.7 |
| 20260906150203 | 30 | 355 | 1.6 | 6.4 | 0.00 | 0.00 | 0.00 | 61 | 1018.7 |
| 20260906150103 | 30 | 10 | 3.2 | 6.4 | 0.00 | 0.00 | 0.00 | 61 | 1018.8 |
| 20260906150003 | 30 | 17 | 1.6 | 6.4 | 0.00 | 0.00 | 0.00 | 61 | 1018.7 |
| 20260906145903 | 30 | 92 | 3.2 | 6.4 | 0.00 | 0.00 | 0.00 | 61 | 1018.7 |
| 20260906145803 | 30 | 146 | 3.2 | 6.4 | 0.00 | 0.00 | 0.00 | 62 | 1018.8 |
| 20260906145704 | 30 | 143 | 3.2 | 6.4 | 0.00 | 0.00 | 0.00 | 62 | 1018.7 |
| 20260906145503 | 30 | 141 | 3.2 | 6.4 | 0.00 | 0.00 | 0.00 | 61 | 1018.7 |
| 20260906145405 | 30 | 135 | 3.2 | 6.4 | 0.00 | 0.00 | 0.00 | 61 | 1018.7 |
| 20260906145306 | 30 | 132 | 3.2 | 6.4 | 0.00 | 0.00 | 0.00 | 61 | 1018.8 |
| 20260906145203 | 30 | 127 | 3.2 | 6.4 | 0.00 | 0.00 | 0.00 | 62 | 1018.9 |
| 20260906145103 | 29 | 120 | 3.2 | 6.4 | 0.00 | 0.00 | 0.00 | 62 | 1018.8 |
| 20260906145003 | 29 | 109 | 1.6 | 6.4 | 0.00 | 0.00 | 0.00 | 62 | 1018.8 |
| 20260906144903 | 29 | 103 | 3.2 | 6.4 | 0.00 | 0.00 | 0.00 | 62 | 1018.8 |
| 20260906144804 | 29 | 101 | 3.2 | 4.8 | 0.00 | 0.00 | 0.00 | 62 | 1018.9 |
| 20260906144703 | 29 | 105 | 3.2 | 4.8 | 0.00 | 0.00 | 0.00 | 62 | 1018.9 |
| 20260906144503 | 29 | 119 | 3.2 | 4.8 | 0.00 | 0.00 | 0.00 | 62 | 1018.9 |
| 20260906144403 | 29 | 123 | 3.2 | 4.8 | 0.00 | 0.00 | 0.00 | 62 | 1018.9 |
| 20260906144303 | 29 | 124 | 3.2 | 4.8 | 0.00 | 0.00 | 0.00 | 62 | 1018.8 |
| 20260906144203 | 29 | 121 | 3.2 | 4.8 | 0.00 | 0.00 | 0.00 | 62 | 1018.9 |
| 20260906144003 | 29 | 129 | 3.2 | 4.8 | 0.00 | 0.00 | 0.00 | 62 | 1018.9 |
| 20260906143905 | 29 | 139 | 3.2 | 4.8 | 0.00 | 0.00 | 0.00 | 62 | 1018.9 |
| 20260906143804 | 29 | 142 | 3.2 | 4.8 | 0.00 | 0.00 | 0.00 | 62 | 1018.9 |
| 20260906143703 | 29 | 138 | 3.2 | 4.8 | 0.00 | 0.00 | 0.00 | 62 | 1018.9 |
| 20260906143603 | 29 | 137 | 3.2 | 4.8 | 0.00 | 0.00 | 0.00 | 62 | 1018.8 |
| 20260906143503 | 29 | 143 | 3.2 | 4.8 | 0.00 | 0.00 | 0.00 | 62 | 1018.9 |
| 20260906143403 | 29 | 147 | 3.2 | 4.8 | 0.00 | 0.00 | 0.00 | 62 | 1018.8 |
| 20260906143303 | 28 | 150 | 0.0 | 4.8 | 0.00 | 0.00 | 0.00 | 62 | 1018.8 |
| 20260906143204 | 28 | 149 | 3.2 | 4.8 | 0.00 | 0.00 | 0.00 | 62 | 1018.9 |
| 20260906143104 | 28 | 158 | 3.2 | 4.8 | 0.00 | 0.00 | 0.00 | 62 | 1018.9 |
| 20260906143003 | 28 | 169 | 3.2 | 3.2 | 0.00 | 0.00 | 0.00 | 62 | 1018.7 |
| 20260906142903 | 28 | 153 | 3.2 | 3.2 | 0.00 | 0.00 | 0.00 | 63 | 1018.8 |
| 20260906142803 | 28 | 148 | 3.2 | 3.2 | 0.00 | 0.00 | 0.00 | 63 | 1018.7 |
| 20260906142703 | 28 | 140 | 1.6 | 3.2 | 0.00 | 0.00 | 0.00 | 63 | 1018.8 |
| 20260906142604 | 28 | 129 | 1.6 | 3.2 | 0.00 | 0.00 | 0.00 | 63 | 1018.8 |
| 20260906142503 | 28 | 131 | 1.6 | 3.2 | 0.00 | 0.00 | 0.00 | 63 | 1018.8 |
| 20260906142306 | 28 | 127 | 1.6 | 3.2 | 0.00 | 0.00 | 0.00 | 63 | 1018.9 |
| 20260906142203 | 28 | 145 | 1.6 | 3.2 | 0.00 | 0.00 | 0.00 | 63 | 1018.8 |
| 20260906142103 | 28 | 163 | 0.0 | 3.2 | 0.00 | 0.00 | 0.00 | 63 | 1018.8 |
| 20260906142003 | 28 | 182 | 1.6 | 3.2 | 0.00 | 0.00 | 0.00 | 63 | 1018.7 |
| 20260906141903 | 28 | 186 | 0.0 | 4.8 | 0.00 | 0.00 | 0.00 | 63 | 1018.7 |
| 20260906141803 | 28 | 239 | 3.2 | 4.8 | 0.00 | 0.00 | 0.00 | 63 | 1018.7 |
| 20260906141703 | 28 | 318 | 1.6 | 4.8 | 0.00 | 0.00 | 0.00 | 63 | 1018.8 |
| 20260906141504 | 28 | 354 | 1.6 | 4.8 | 0.00 | 0.00 | 0.00 | 63 | 1018.6 |
| 20260906141404 | 28 | 17 | 1.6 | 4.8 | 0.00 | 0.00 | 0.00 | 63 | 1018.6 |
| 20260906141303 | 28 | 43 | 3.2 | 4.8 | 0.00 | 0.00 | 0.00 | 64 | 1018.8 |
| 20260906141003 | 28 | 65 | 1.6 | 4.8 | 0.00 | 0.00 | 0.00 | 64 | 1018.7 |
| 20260906140906 | 28 | 73 | 3.2 | 4.8 | 0.00 | 0.00 | 0.00 | 64 | 1018.6 |
| 20260906140803 | 28 | 84 | 3.2 | 3.2 | 0.00 | 0.00 | 0.00 | 64 | 1018.6 |
| 20260906140703 | 27 | 92 | 3.2 | 4.8 | 0.00 | 0.00 | 0.00 | 64 | 1018.7 |
| 20260906140603 | 27 | 97 | 3.2 | 4.8 | 0.00 | 0.00 | 0.00 | 65 | 1018.6 |
| 20260906140504 | 27 | 98 | 3.2 | 4.8 | 0.00 | 0.00 | 0.00 | 65 | 1018.7 |
| 20260906140403 | 27 | 92 | 3.2 | 4.8 | 0.00 | 0.00 | 0.00 | 65 | 1018.6 |
| 20260906140303 | 27 | 86 | 3.2 | 4.8 | 0.00 | 0.00 | 0.00 | 65 | 1018.7 |
| 20260906140203 | 27 | 83 | 3.2 | 4.8 | 0.00 | 0.00 | 0.00 | 65 | 1018.6 |
| 20260906140003 | 27 | 87 | 3.2 | 4.8 | 0.00 | 0.00 | 0.00 | 65 | 1018.6 |
| 20260906135803 | 27 | 253 | 3.2 | 4.8 | 0.00 | 0.00 | 0.00 | 65 | 1018.7 |
| 20260906135703 | 27 | 323 | 3.2 | 4.8 | 0.00 | 0.00 | 0.00 | 65 | 1018.7 |
| 20260906135603 | 27 | 328 | 3.2 | 4.8 | 0.00 | 0.00 | 0.00 | 65 | 1018.7 |
| 20260906135503 | 27 | 348 | 3.2 | 4.8 | 0.00 | 0.00 | 0.00 | 65 | 1018.5 |
| 20260906135406 | 27 | 19 | 1.6 | 4.8 | 0.00 | 0.00 | 0.00 | 64 | 1018.7 |
| 20260906135305 | 27 | 74 | 1.6 | 4.8 | 0.00 | 0.00 | 0.00 | 64 | 1018.6 |
| 20260906135204 | 27 | 106 | 3.2 | 4.8 | 0.00 | 0.00 | 0.00 | 64 | 1018.6 |
| 20260906135104 | 27 | 65 | 1.6 | 3.2 | 0.00 | 0.00 | 0.00 | 65 | 1018.6 |
| 20260906135003 | 27 | 59 | 1.6 | 3.2 | 0.00 | 0.00 | 0.00 | 65 | 1018.6 |
| 20260906134903 | 27 | 46 | 1.6 | 3.2 | 0.00 | 0.00 | 0.00 | 65 | 1018.6 |
| 20260906134803 | 27 | 38 | 1.6 | 3.2 | 0.00 | 0.00 | 0.00 | 65 | 1018.6 |
| 20260906134703 | 27 | 46 | 3.2 | 3.2 | 0.00 | 0.00 | 0.00 | 65 | 1018.6 |
| 20260906134603 | 27 | 46 | 1.6 | 3.2 | 0.00 | 0.00 | 0.00 | 69 | 1018.7 |
| 20260906134403 | 27 | 41 | 1.6 | 3.2 | 0.00 | 0.00 | 0.00 | 69 | 1018.8 |
| 20260906134303 | 27 | 20 | 1.6 | 4.8 | 0.00 | 0.00 | 0.00 | 69 | 1018.7 |
| 20260906134203 | 27 | 7 | 3.2 | 4.8 | 0.00 | 0.00 | 0.00 | 69 | 1018.7 |
| 20260906134003 | 27 | 20 | 3.2 | 4.8 | 0.00 | 0.00 | 0.00 | 69 | 1018.6 |
| 20260906133906 | 27 | 25 | 3.2 | 4.8 | 0.00 | 0.00 | 0.00 | 69 | 1018.9 |
| 20260906133703 | 27 | 27 | 1.6 | 4.8 | 0.00 | 0.00 | 0.00 | 69 | 1018.6 |
| 20260906133404 | 27 | 26 | 3.2 | 4.8 | 0.00 | 0.00 | 0.00 | 69 | 1018.6 |
| 20260906133303 | 27 | 46 | 1.6 | 3.2 | 0.00 | 0.00 | 0.00 | 69 | 1018.7 |
| 20260906133203 | 27 | 48 | 1.6 | 4.8 | 0.00 | 0.00 | 0.00 | 69 | 1018.6 |
| 20260906133103 | 27 | 52 | 1.6 | 4.8 | 0.00 | 0.00 | 0.00 | 69 | 1018.7 |
| 20260906133004 | 27 | 47 | 3.2 | 4.8 | 0.00 | 0.00 | 0.00 | 69 | 1018.6 |
| 20260906132903 | 27 | 45 | 3.2 | 4.8 | 0.00 | 0.00 | 0.00 | 69 | 1018.4 |
| 20260906132803 | 27 | 37 | 3.2 | 4.8 | 0.00 | 0.00 | 0.00 | 69 | 1018.6 |
| 20260906132703 | 27 | 34 | 3.2 | 4.8 | 0.00 | 0.00 | 0.00 | 69 | 1018.7 |
| 20260906132603 | 27 | 32 | 3.2 | 4.8 | 0.00 | 0.00 | 0.00 | 69 | 1018.4 |
| 20260906132504 | 27 | 27 | 1.6 | 4.8 | 0.00 | 0.00 | 0.00 | 69 | 1018.6 |
| 20260906132406 | 27 | 23 | 1.6 | 4.8 | 0.00 | 0.00 | 0.00 | 69 | 1018.5 |
| 20260906132306 | 26 | 19 | 3.2 | 4.8 | 0.00 | 0.00 | 0.00 | 69 | 1018.5 |
| 20260906132204 | 26 | 15 | 3.2 | 4.8 | 0.00 | 0.00 | 0.00 | 69 | 1018.6 |
| 20260906132003 | 26 | 13 | 3.2 | 4.8 | 0.00 | 0.00 | 0.00 | 69 | 1018.5 |
| 20260906131903 | 26 | 16 | 3.2 | 4.8 | 0.00 | 0.00 | 0.00 | 69 | 1018.5 |
| 20260906131803 | 26 | 17 | 1.6 | 4.8 | 0.00 | 0.00 | 0.00 | 69 | 1018.4 |
| 20260906131703 | 26 | 16 | 1.6 | 4.8 | 0.00 | 0.00 | 0.00 | 69 | 1018.5 |
| 20260906131603 | 26 | 14 | 1.6 | 4.8 | 0.00 | 0.00 | 0.00 | 69 | 1018.5 |
| 20260906131504 | 26 | 11 | 3.2 | 4.8 | 0.00 | 0.00 | 0.00 | 70 | 1018.4 |
| 20260906131404 | 26 | 10 | 1.6 | 3.2 | 0.00 | 0.00 | 0.00 | 70 | 1018.4 |
| 20260906131303 | 26 | 10 | 1.6 | 3.2 | 0.00 | 0.00 | 0.00 | 70 | 1018.3 |
| 20260906131203 | 26 | 8 | 3.2 | 3.2 | 0.00 | 0.00 | 0.00 | 70 | 1018.3 |
| 20260906131103 | 26 | 6 | 3.2 | 3.2 | 0.00 | 0.00 | 0.00 | 70 | 1018.2 |
| 20260906130906 | 26 | 359 | 3.2 | 3.2 | 0.00 | 0.00 | 0.00 | 70 | 1018.3 |
| 20260906130803 | 26 | 357 | 3.2 | 3.2 | 0.00 | 0.00 | 0.00 | 70 | 1018.3 |
| 20260906130703 | 26 | 357 | 1.6 | 3.2 | 0.00 | 0.00 | 0.00 | 70 | 1018.5 |
| 20260906130504 | 26 | 357 | 3.2 | 3.2 | 0.00 | 0.00 | 0.00 | 70 | 1018.3 |
| 20260906130404 | 26 | 357 | 3.2 | 3.2 | 0.00 | 0.00 | 0.00 | 71 | 1018.4 |
| 20260906130303 | 26 | 357 | 3.2 | 4.8 | 0.00 | 0.00 | 0.00 | 71 | 1018.3 |
| 20260906130203 | 26 | 357 | 3.2 | 4.8 | 0.00 | 0.00 | 0.00 | 71 | 1018.4 |
| 20260906130103 | 26 | 357 | 3.2 | 4.8 | 0.00 | 0.00 | 0.00 | 71 | 1018.2 |
| 20260906130003 | 26 | 357 | 3.2 | 4.8 | 0.00 | 0.00 | 0.00 | 71 | 1018.3 |
| 20260906125904 | 26 | 359 | 3.2 | 4.8 | 0.00 | 0.00 | 0.00 | 71 | 1018.3 |
| 20260906125803 | 26 | 1 | 3.2 | 4.8 | 0.00 | 0.00 | 0.00 | 71 | 1018.3 |
| 20260906125703 | 26 | 1 | 3.2 | 4.8 | 0.00 | 0.00 | 0.00 | 71 | 1018.3 |
| 20260906125603 | 26 | 1 | 3.2 | 4.8 | 0.00 | 0.00 | 0.00 | 71 | 1018.2 |
| 20260906125503 | 26 | 1 | 3.2 | 4.8 | 0.00 | 0.00 | 0.00 | 71 | 1018.2 |
| 20260906125406 | 26 | 1 | 3.2 | 4.8 | 0.00 | 0.00 | 0.00 | 71 | 1018.3 |
| 20260906125306 | 25 | 1 | 3.2 | 4.8 | 0.00 | 0.00 | 0.00 | 71 | 1018.3 |
| 20260906125103 | 25 | 1 | 1.6 | 3.2 | 0.00 | 0.00 | 0.00 | 71 | 1018.2 |
| 20260906125003 | 25 | 1 | 1.6 | 3.2 | 0.00 | 0.00 | 0.00 | 71 | 1018.1 |
| 20260906124904 | 25 | 1 | 1.6 | 3.2 | 0.00 | 0.00 | 0.00 | 71 | 1018.1 |
| 20260906124804 | 25 | 1 | 3.2 | 3.2 | 0.00 | 0.00 | 0.00 | 71 | 1018.2 |
| 20260906124703 | 25 | 1 | 1.6 | 3.2 | 0.00 | 0.00 | 0.00 | 71 | 1018.2 |
| 20260906124403 | 25 | 1 | 1.6 | 3.2 | 0.00 | 0.00 | 0.00 | 71 | 1018.0 |
| 20260906124304 | 25 | 1 | 1.6 | 3.2 | 0.00 | 0.00 | 0.00 | 71 | 1018.0 |
| 20260906124204 | 25 | 1 | 1.6 | 3.2 | 0.00 | 0.00 | 0.00 | 71 | 1018.0 |
| 20260906124003 | 25 | 355 | 1.6 | 3.2 | 0.00 | 0.00 | 0.00 | 71 | 1017.9 |
| 20260906123906 | 25 | 356 | 0.0 | 3.2 | 0.00 | 0.00 | 0.00 | 71 | 1018.0 |
| 20260906123803 | 25 | 356 | 1.6 | 3.2 | 0.00 | 0.00 | 0.00 | 72 | 1017.9 |
| 20260906123704 | 25 | 356 | 1.6 | 3.2 | 0.00 | 0.00 | 0.00 | 72 | 1018.0 |
| 20260906123603 | 25 | 356 | 3.2 | 3.2 | 0.00 | 0.00 | 0.00 | 72 | 1017.8 |
| 20260906123503 | 25 | 355 | 3.2 | 3.2 | 0.00 | 0.00 | 0.00 | 72 | 1017.9 |
| 20260906123403 | 25 | 355 | 1.6 | 3.2 | 0.00 | 0.00 | 0.00 | 72 | 1017.9 |
| 20260906123303 | 25 | 355 | 1.6 | 3.2 | 0.00 | 0.00 | 0.00 | 72 | 1017.8 |
| 20260906123204 | 25 | 355 | 0.0 | 3.2 | 0.00 | 0.00 | 0.00 | 72 | 1017.9 |
| 20260906123103 | 25 | 356 | 0.0 | 3.2 | 0.00 | 0.00 | 0.00 | 72 | 1017.9 |
| 20260906123003 | 25 | 1 | 1.6 | 3.2 | 0.00 | 0.00 | 0.00 | 72 | 1017.9 |
| 20260906122803 | 25 | 1 | 0.0 | 3.2 | 0.00 | 0.00 | 0.00 | 72 | 1017.8 |
| 20260906122604 | 25 | 1 | 1.6 | 3.2 | 0.00 | 0.00 | 0.00 | 72 | 1017.8 |
| 20260906122404 | 25 | 1 | 1.6 | 3.2 | 0.00 | 0.00 | 0.00 | 72 | 1017.8 |
| 20260906122203 | 25 | 1 | 1.6 | 3.2 | 0.00 | 0.00 | 0.00 | 72 | 1017.7 |
| 20260906122103 | 25 | 1 | 3.2 | 3.2 | 0.00 | 0.00 | 0.00 | 72 | 1017.8 |
| 20260906121803 | 25 | 1 | 1.6 | 3.2 | 0.00 | 0.00 | 0.00 | 73 | 1017.8 |
| 20260906121703 | 25 | 1 | 1.6 | 3.2 | 0.00 | 0.00 | 0.00 | 73 | 1017.8 |
| 20260906121603 | 25 | 1 | 1.6 | 3.2 | 0.00 | 0.00 | 0.00 | 73 | 1017.7 |
| 20260906121503 | 25 | 1 | 1.6 | 3.2 | 0.00 | 0.00 | 0.00 | 73 | 1017.7 |
| 20260906121404 | 25 | 1 | 1.6 | 1.6 | 0.00 | 0.00 | 0.00 | 73 | 1017.7 |
| 20260906121203 | 25 | 1 | 0.0 | 1.6 | 0.00 | 0.00 | 0.00 | 72 | 1017.7 |
| 20260906121003 | 25 | 1 | 0.0 | 1.6 | 0.00 | 0.00 | 0.00 | 72 | 1017.7 |
| 20260906120907 | 25 | 1 | 0.0 | 1.6 | 0.00 | 0.00 | 0.00 | 72 | 1017.7 |
| 20260906120806 | 25 | 1 | 0.0 | 1.6 | 0.00 | 0.00 | 0.00 | 72 | 1017.7 |
| 20260906120603 | 25 | 353 | 1.6 | 1.6 | 0.00 | 0.00 | 0.00 | 72 | 1017.7 |
| 20260906120404 | 25 | 341 | 1.6 | 1.6 | 0.00 | 0.00 | 0.00 | 72 | 1017.7 |
| 20260906120303 | 25 | 338 | 1.6 | 1.6 | 0.00 | 0.00 | 0.00 | 72 | 1017.7 |
| 20260906120203 | 25 | 333 | 1.6 | 1.6 | 0.00 | 0.00 | 0.00 | 72 | 1017.6 |
| 20260906120003 | 25 | 318 | 1.6 | 1.6 | 0.00 | 0.00 | 0.00 | 72 | 1017.7 |
| 20260906115904 | 25 | 314 | 0.0 | 1.6 | 0.00 | 0.00 | 0.00 | 72 | 1017.8 |
| 20260906115803 | 25 | 314 | 0.0 | 1.6 | 0.00 | 0.00 | 0.00 | 72 | 1017.6 |
| 20260906115703 | 25 | 314 | 0.0 | 1.6 | 0.00 | 0.00 | 0.00 | 72 | 1017.7 |
| 20260906115603 | 25 | 314 | 0.0 | 1.6 | 0.00 | 0.00 | 0.00 | 72 | 1017.7 |
| 20260906115503 | 25 | 314 | 0.0 | 1.6 | 0.00 | 0.00 | 0.00 | 72 | 1017.7 |
| 20260906115403 | 25 | 0 | 0.0 | 0.0 | 0.00 | 0.00 | 0.00 | 72 | 1017.7 |
| 20260906115306 | 25 | 0 | 0.0 | 0.0 | 0.00 | 0.00 | 0.00 | 72 | 1017.7 |
| 20260906115203 | 25 | 0 | 0.0 | 0.0 | 0.00 | 0.00 | 0.00 | 72 | 1017.6 |
| 20260906115103 | 25 | 0 | 0.0 | 0.0 | 0.00 | 0.00 | 0.00 | 71 | 1017.6 |
| 20260906115004 | 25 | 0 | 0.0 | 0.0 | 0.00 | 0.00 | 0.00 | 71 | 1017.7 |
| 20260906114903 | 25 | 0 | 0.0 | 0.0 | 0.00 | 0.00 | 0.00 | 71 | 1017.7 |
| 20260906114803 | 25 | 0 | 0.0 | 0.0 | 0.00 | 0.00 | 0.00 | 71 | 1017.7 |
| 20260906114703 | 25 | 0 | 0.0 | 0.0 | 0.00 | 0.00 | 0.00 | 71 | 1017.7 |
| 20260906114603 | 25 | 0 | 0.0 | 0.0 | 0.00 | 0.00 | 0.00 | 71 | 1017.7 |
| 20260906114503 | 25 | 0 | 0.0 | 0.0 | 0.00 | 0.00 | 0.00 | 71 | 1017.6 |
| 20260906114404 | 25 | 0 | 0.0 | 0.0 | 0.00 | 0.00 | 0.00 | 71 | 1017.7 |
| 20260906114304 | 25 | 0 | 0.0 | 0.0 | 0.00 | 0.00 | 0.00 | 71 | 1017.7 |
| 20260906114203 | 25 | 0 | 0.0 | 0.0 | 0.00 | 0.00 | 0.00 | 71 | 1017.7 |
| 20260906114103 | 25 | 0 | 0.0 | 0.0 | 0.00 | 0.00 | 0.00 | 71 | 1017.7 |
| 20260906114003 | 25 | 0 | 0.0 | 0.0 | 0.00 | 0.00 | 0.00 | 71 | 1017.7 |
| 20260906113903 | 25 | 0 | 0.0 | 0.0 | 0.00 | 0.00 | 0.00 | 71 | 1017.7 |
| 20260906113806 | 25 | 0 | 0.0 | 0.0 | 0.00 | 0.00 | 0.00 | 71 | 1017.7 |
| 20260906113703 | 25 | 0 | 0.0 | 0.0 | 0.00 | 0.00 | 0.00 | 71 | 1017.6 |
| 20260906113603 | 25 | 0 | 0.0 | 0.0 | 0.00 | 0.00 | 0.00 | 71 | 1017.7 |
| 20260906113503 | 25 | 0 | 0.0 | 0.0 | 0.00 | 0.00 | 0.00 | 71 | 1017.6 |
| 20260906113403 | 25 | 0 | 0.0 | 0.0 | 0.00 | 0.00 | 0.00 | 71 | 1017.6 |
| 20260906113304 | 25 | 0 | 0.0 | 0.0 | 0.00 | 0.00 | 0.00 | 71 | 1017.4 |
| 20260906113203 | 25 | 0 | 0.0 | 0.0 | 0.00 | 0.00 | 0.00 | 71 | 1017.6 |
| 20260906113104 | 25 | 0 | 0.0 | 0.0 | 0.00 | 0.00 | 0.00 | 71 | 1017.5 |
| 20260906112903 | 25 | 1 | 0.0 | 1.6 | 0.00 | 0.00 | 0.00 | 70 | 1017.5 |
| 20260906112803 | 25 | 1 | 0.0 | 1.6 | 0.00 | 0.00 | 0.00 | 70 | 1017.5 |
| 20260906112703 | 25 | 1 | 0.0 | 1.6 | 0.00 | 0.00 | 0.00 | 70 | 1017.6 |
| 20260906112604 | 25 | 1 | 0.0 | 1.6 | 0.00 | 0.00 | 0.00 | 70 | 1017.5 |
| 20260906112503 | 25 | 1 | 0.0 | 1.6 | 0.00 | 0.00 | 0.00 | 70 | 1017.6 |
| 20260906112403 | 25 | 1 | 0.0 | 1.6 | 0.00 | 0.00 | 0.00 | 70 | 1017.5 |
| 20260906112307 | 25 | 1 | 0.0 | 1.6 | 0.00 | 0.00 | 0.00 | 70 | 1017.6 |
| 20260906112204 | 25 | 1 | 0.0 | 3.2 | 0.00 | 0.00 | 0.00 | 70 | 1017.5 |
| 20260906112103 | 25 | 1 | 0.0 | 3.2 | 0.00 | 0.00 | 0.00 | 70 | 1017.5 |
| 20260906111903 | 25 | 1 | 0.0 | 3.2 | 0.00 | 0.00 | 0.00 | 70 | 1017.5 |
| 20260906111803 | 25 | 1 | 0.0 | 3.2 | 0.00 | 0.00 | 0.00 | 70 | 1017.6 |
| 20260906111604 | 25 | 1 | 0.0 | 3.2 | 0.00 | 0.00 | 0.00 | 70 | 1017.5 |
| 20260906111504 | 25 | 1 | 0.0 | 3.2 | 0.00 | 0.00 | 0.00 | 70 | 1017.5 |
| 20260906111404 | 25 | 1 | 0.0 | 3.2 | 0.00 | 0.00 | 0.00 | 70 | 1017.6 |
| 20260906111303 | 25 | 5 | 0.0 | 3.2 | 0.00 | 0.00 | 0.00 | 70 | 1017.6 |
| 20260906111203 | 25 | 7 | 3.2 | 3.2 | 0.00 | 0.00 | 0.00 | 70 | 1017.5 |
| 20260906111103 | 25 | 8 | 1.6 | 3.2 | 0.00 | 0.00 | 0.00 | 70 | 1017.5 |
| 20260906111004 | 25 | 9 | 1.6 | 3.2 | 0.00 | 0.00 | 0.00 | 70 | 1017.5 |
| 20260906110904 | 25 | 10 | 1.6 | 3.2 | 0.00 | 0.00 | 0.00 | 70 | 1017.4 |
| 20260906110806 | 25 | 10 | 1.6 | 3.2 | 0.00 | 0.00 | 0.00 | 70 | 1017.5 |
| 20260906110703 | 25 | 10 | 1.6 | 3.2 | 0.00 | 0.00 | 0.00 | 70 | 1017.5 |
| 20260906110603 | 25 | 10 | 1.6 | 3.2 | 0.00 | 0.00 | 0.00 | 70 | 1017.5 |
| 20260906110403 | 25 | 7 | 0.0 | 3.2 | 0.00 | 0.00 | 0.00 | 70 | 1017.5 |
| 20260906110303 | 25 | 3 | 1.6 | 3.2 | 0.00 | 0.00 | 0.00 | 70 | 1017.4 |
| 20260906110203 | 25 | 1 | 0.0 | 3.2 | 0.00 | 0.00 | 0.00 | 70 | 1017.4 |
| 20260906110104 | 25 | 1 | 0.0 | 3.2 | 0.00 | 0.00 | 0.00 | 70 | 1017.4 |
| 20260906110004 | 25 | 1 | 0.0 | 3.2 | 0.00 | 0.00 | 0.00 | 70 | 1017.4 |
| 20260906105903 | 25 | 1 | 1.6 | 3.2 | 0.00 | 0.00 | 0.00 | 70 | 1017.4 |
| 20260906105803 | 25 | 1 | 1.6 | 3.2 | 0.00 | 0.00 | 0.00 | 70 | 1017.5 |
| 20260906105603 | 25 | 1 | 1.6 | 3.2 | 0.00 | 0.00 | 0.00 | 70 | 1017.5 |
| 20260906105404 | 25 | 1 | 0.0 | 3.2 | 0.00 | 0.00 | 0.00 | 70 | 1017.4 |
| 20260906105306 | 25 | 1 | 0.0 | 3.2 | 0.00 | 0.00 | 0.00 | 70 | 1017.5 |
| 20260906105206 | 25 | 1 | 0.0 | 3.2 | 0.00 | 0.00 | 0.00 | 70 | 1017.4 |
| 20260906105103 | 25 | 1 | 0.0 | 3.2 | 0.00 | 0.00 | 0.00 | 70 | 1017.4 |
| 20260906105004 | 25 | 1 | 1.6 | 3.2 | 0.00 | 0.00 | 0.00 | 70 | 1017.5 |
| 20260906104903 | 26 | 1 | 1.6 | 3.2 | 0.00 | 0.00 | 0.00 | 70 | 1017.4 |
| 20260906104803 | 26 | 1 | 3.2 | 3.2 | 0.00 | 0.00 | 0.00 | 70 | 1017.4 |
| 20260906104703 | 26 | 1 | 1.6 | 3.2 | 0.00 | 0.00 | 0.00 | 70 | 1017.4 |
| 20260906104603 | 26 | 1 | 1.6 | 3.2 | 0.00 | 0.00 | 0.00 | 70 | 1017.4 |
| 20260906104504 | 26 | 1 | 1.6 | 3.2 | 0.00 | 0.00 | 0.00 | 70 | 1017.4 |
| 20260906104403 | 26 | 1 | 1.6 | 3.2 | 0.00 | 0.00 | 0.00 | 70 | 1017.4 |
| 20260906104303 | 26 | 1 | 1.6 | 3.2 | 0.00 | 0.00 | 0.00 | 70 | 1017.5 |
| 20260906104103 | 26 | 1 | 1.6 | 3.2 | 0.00 | 0.00 | 0.00 | 70 | 1017.4 |
| 20260906104003 | 26 | 1 | 1.6 | 3.2 | 0.00 | 0.00 | 0.00 | 70 | 1017.4 |
| 20260906103904 | 26 | 359 | 1.6 | 3.2 | 0.00 | 0.00 | 0.00 | 70 | 1017.5 |
| 20260906103804 | 25 | 356 | 3.2 | 3.2 | 0.00 | 0.00 | 0.00 | 70 | 1017.4 |
| 20260906103705 | 25 | 356 | 3.2 | 3.2 | 0.00 | 0.00 | 0.00 | 70 | 1017.4 |
| 20260906103604 | 25 | 355 | 1.6 | 3.2 | 0.00 | 0.00 | 0.00 | 70 | 1017.5 |
| 20260906103504 | 25 | 353 | 3.2 | 3.2 | 0.00 | 0.00 | 0.00 | 70 | 1017.5 |
| 20260906103403 | 25 | 351 | 1.6 | 3.2 | 0.00 | 0.00 | 0.00 | 70 | 1017.5 |
| 20260906103103 | 25 | 342 | 1.6 | 3.2 | 0.00 | 0.00 | 0.00 | 70 | 1017.3 |
| 20260906103003 | 25 | 333 | 3.2 | 3.2 | 0.00 | 0.00 | 0.00 | 70 | 1017.2 |
| 20260906102903 | 25 | 314 | 1.6 | 3.2 | 0.00 | 0.00 | 0.00 | 70 | 1017.4 |
| 20260906102803 | 25 | 314 | 0.0 | 1.6 | 0.00 | 0.00 | 0.00 | 70 | 1017.3 |
| 20260906102704 | 25 | 314 | 0.0 | 1.6 | 0.00 | 0.00 | 0.00 | 70 | 1017.2 |
| 20260906102603 | 25 | 314 | 0.0 | 1.6 | 0.00 | 0.00 | 0.00 | 70 | 1017.3 |
| 20260906102503 | 25 | 0 | 0.0 | 0.0 | 0.00 | 0.00 | 0.00 | 70 | 1017.3 |
| 20260906102403 | 25 | 0 | 0.0 | 0.0 | 0.00 | 0.00 | 0.00 | 70 | 1017.4 |
| 20260906102306 | 25 | 0 | 0.0 | 0.0 | 0.00 | 0.00 | 0.00 | 70 | 1017.3 |
| 20260906102103 | 25 | 0 | 0.0 | 0.0 | 0.00 | 0.00 | 0.00 | 70 | 1017.4 |
| 20260906102003 | 25 | 0 | 0.0 | 0.0 | 0.00 | 0.00 | 0.00 | 70 | 1017.3 |
| 20260906101903 | 25 | 0 | 0.0 | 0.0 | 0.00 | 0.00 | 0.00 | 70 | 1017.3 |
| 20260906101804 | 25 | 0 | 0.0 | 0.0 | 0.00 | 0.00 | 0.00 | 70 | 1017.4 |
| 20260906101704 | 25 | 0 | 0.0 | 0.0 | 0.00 | 0.00 | 0.00 | 70 | 1017.2 |
| 20260906101603 | 25 | 314 | 0.0 | 1.6 | 0.00 | 0.00 | 0.00 | 70 | 1017.3 |
| 20260906101503 | 25 | 314 | 0.0 | 1.6 | 0.00 | 0.00 | 0.00 | 70 | 1017.3 |
| 20260906101403 | 25 | 314 | 0.0 | 1.6 | 0.00 | 0.00 | 0.00 | 70 | 1017.1 |
| 20260906101303 | 25 | 314 | 0.0 | 1.6 | 0.00 | 0.00 | 0.00 | 70 | 1017.2 |
| 20260906101004 | 25 | 315 | 0.0 | 1.6 | 0.00 | 0.00 | 0.00 | 70 | 1017.2 |
| 20260906100903 | 25 | 315 | 0.0 | 1.6 | 0.00 | 0.00 | 0.00 | 70 | 1017.1 |
| 20260906100803 | 25 | 315 | 0.0 | 1.6 | 0.00 | 0.00 | 0.00 | 70 | 1017.3 |
| 20260906100604 | 25 | 314 | 0.0 | 3.2 | 0.00 | 0.00 | 0.00 | 70 | 1017.2 |
| 20260906100504 | 25 | 314 | 0.0 | 3.2 | 0.00 | 0.00 | 0.00 | 70 | 1017.2 |
| 20260906100303 | 25 | 314 | 0.0 | 3.2 | 0.00 | 0.00 | 0.00 | 70 | 1017.2 |
| 20260906100203 | 25 | 314 | 0.0 | 3.2 | 0.00 | 0.00 | 0.00 | 70 | 1017.2 |
| 20260906100103 | 25 | 314 | 0.0 | 3.2 | 0.00 | 0.00 | 0.00 | 70 | 1017.1 |
| 20260906100003 | 25 | 314 | 0.0 | 3.2 | 0.00 | 0.00 | 0.00 | 70 | 1017.0 |
| 20260906095904 | 25 | 314 | 0.0 | 3.2 | 0.00 | 0.00 | 0.00 | 70 | 1017.0 |
| 20260906095803 | 25 | 314 | 1.6 | 3.2 | 0.00 | 0.00 | 0.00 | 70 | 1017.2 |
| 20260906095703 | 25 | 314 | 1.6 | 3.2 | 0.00 | 0.00 | 0.00 | 70 | 1017.2 |
| 20260906095603 | 25 | 314 | 1.6 | 3.2 | 0.00 | 0.00 | 0.00 | 70 | 1017.2 |
| 20260906095503 | 25 | 314 | 1.6 | 3.2 | 0.00 | 0.00 | 0.00 | 70 | 1017.3 |
| 20260906095306 | 25 | 314 | 1.6 | 3.2 | 0.00 | 0.00 | 0.00 | 70 | 1017.1 |
| 20260906095103 | 25 | 0 | 0.0 | 0.0 | 0.00 | 0.00 | 0.00 | 70 | 1017.0 |
| 20260906095004 | 25 | 0 | 0.0 | 0.0 | 0.00 | 0.00 | 0.00 | 70 | 1017.1 |
| 20260906094903 | 25 | 0 | 0.0 | 0.0 | 0.00 | 0.00 | 0.00 | 70 | 1017.1 |
| 20260906094803 | 25 | 0 | 0.0 | 0.0 | 0.00 | 0.00 | 0.00 | 70 | 1017.0 |
| 20260906094703 | 25 | 0 | 0.0 | 0.0 | 0.00 | 0.00 | 0.00 | 70 | 1017.1 |
| 20260906094603 | 25 | 0 | 0.0 | 0.0 | 0.00 | 0.00 | 0.00 | 69 | 1017.1 |
| 20260906094503 | 25 | 0 | 0.0 | 0.0 | 0.00 | 0.00 | 0.00 | 69 | 1017.2 |
| 20260906094304 | 25 | 0 | 0.0 | 0.0 | 0.00 | 0.00 | 0.00 | 69 | 1017.1 |
| 20260906094103 | 25 | 0 | 0.0 | 0.0 | 0.00 | 0.00 | 0.00 | 69 | 1017.1 |
| 20260906093903 | 26 | 0 | 0.0 | 0.0 | 0.00 | 0.00 | 0.00 | 69 | 1017.1 |
| 20260906093803 | 26 | 0 | 0.0 | 0.0 | 0.00 | 0.00 | 0.00 | 69 | 1017.2 |
| 20260906093706 | 26 | 0 | 0.0 | 0.0 | 0.00 | 0.00 | 0.00 | 69 | 1017.1 |
| 20260906093603 | 26 | 0 | 0.0 | 0.0 | 0.00 | 0.00 | 0.00 | 69 | 1017.2 |
| 20260906093504 | 26 | 0 | 0.0 | 0.0 | 0.00 | 0.00 | 0.00 | 69 | 1017.1 |
| 20260906093404 | 26 | 0 | 0.0 | 0.0 | 0.00 | 0.00 | 0.00 | 69 | 1017.2 |
| 20260906093303 | 26 | 0 | 0.0 | 0.0 | 0.00 | 0.00 | 0.00 | 69 | 1017.0 |
| 20260906093203 | 26 | 0 | 0.0 | 0.0 | 0.00 | 0.00 | 0.00 | 69 | 1017.1 |
| 20260906093103 | 26 | 0 | 0.0 | 0.0 | 0.00 | 0.00 | 0.00 | 69 | 1017.1 |
| 20260906092903 | 26 | 0 | 0.0 | 0.0 | 0.00 | 0.00 | 0.00 | 68 | 1017.1 |
| 20260906092803 | 26 | 0 | 0.0 | 0.0 | 0.00 | 0.00 | 0.00 | 68 | 1017.0 |
| 20260906092704 | 26 | 0 | 0.0 | 0.0 | 0.00 | 0.00 | 0.00 | 68 | 1017.1 |
| 20260906092604 | 26 | 0 | 0.0 | 0.0 | 0.00 | 0.00 | 0.00 | 68 | 1017.1 |
| 20260906092503 | 26 | 0 | 0.0 | 0.0 | 0.00 | 0.00 | 0.00 | 68 | 1017.2 |
| 20260906092403 | 26 | 0 | 0.0 | 0.0 | 0.00 | 0.00 | 0.00 | 68 | 1017.0 |
| 20260906092306 | 26 | 0 | 0.0 | 0.0 | 0.00 | 0.00 | 0.00 | 68 | 1016.9 |
| 20260906092206 | 26 | 0 | 0.0 | 0.0 | 0.00 | 0.00 | 0.00 | 68 | 1017.0 |
| 20260906092103 | 26 | 45 | 0.0 | 1.6 | 0.00 | 0.00 | 0.00 | 68 | 1017.0 |
| 20260906092004 | 26 | 45 | 0.0 | 1.6 | 0.00 | 0.00 | 0.00 | 68 | 1017.1 |
| 20260906091903 | 26 | 45 | 0.0 | 1.6 | 0.00 | 0.00 | 0.00 | 68 | 1017.1 |
| 20260906091803 | 26 | 45 | 0.0 | 1.6 | 0.00 | 0.00 | 0.00 | 68 | 1016.9 |
| 20260906091703 | 26 | 45 | 0.0 | 1.6 | 0.00 | 0.00 | 0.00 | 68 | 1017.0 |
| 20260906091603 | 26 | 45 | 0.0 | 1.6 | 0.00 | 0.00 | 0.00 | 68 | 1017.0 |
| 20260906091503 | 26 | 45 | 0.0 | 1.6 | 0.00 | 0.00 | 0.00 | 68 | 1017.0 |
| 20260906091403 | 26 | 45 | 0.0 | 1.6 | 0.00 | 0.00 | 0.00 | 68 | 1017.0 |
| 20260906091304 | 26 | 45 | 0.0 | 1.6 | 0.00 | 0.00 | 0.00 | 68 | 1017.0 |
| 20260906091203 | 26 | 45 | 0.0 | 1.6 | 0.00 | 0.00 | 0.00 | 68 | 1016.9 |
| 20260906091103 | 26 | 45 | 0.0 | 1.6 | 0.00 | 0.00 | 0.00 | 68 | 1017.0 |
| 20260906090903 | 26 | 349 | 0.0 | 3.2 | 0.00 | 0.00 | 0.00 | 68 | 1017.1 |
| 20260906090803 | 26 | 330 | 0.0 | 3.2 | 0.00 | 0.00 | 0.00 | 68 | 1017.0 |
| 20260906090706 | 26 | 326 | 0.0 | 3.2 | 0.00 | 0.00 | 0.00 | 68 | 1017.0 |
| 20260906090603 | 26 | 326 | 0.0 | 3.2 | 0.00 | 0.00 | 0.00 | 68 | 1017.0 |
| 20260906090503 | 26 | 326 | 0.0 | 3.2 | 0.00 | 0.00 | 0.00 | 68 | 1017.0 |
| 20260906090404 | 26 | 323 | 0.0 | 3.2 | 0.00 | 0.00 | 0.00 | 68 | 1016.9 |
| 20260906090303 | 26 | 316 | 0.0 | 3.2 | 0.00 | 0.00 | 0.00 | 68 | 1017.1 |
| 20260906090203 | 26 | 314 | 0.0 | 3.2 | 0.00 | 0.00 | 0.00 | 68 | 1017.0 |
| 20260906090103 | 26 | 314 | 0.0 | 3.2 | 0.00 | 0.00 | 0.00 | 68 | 1017.0 |
| 20260906090003 | 26 | 314 | 0.0 | 3.2 | 0.00 | 0.00 | 0.00 | 68 | 1017.0 |
| 20260906085804 | 26 | 270 | 1.6 | 3.2 | 0.00 | 0.00 | 0.00 | 68 | 1017.0 |
| 20260906085704 | 26 | 203 | 0.0 | 1.6 | 0.00 | 0.00 | 0.00 | 68 | 1016.9 |
| 20260906085603 | 26 | 203 | 0.0 | 1.6 | 0.00 | 0.00 | 0.00 | 68 | 1016.9 |
| 20260906085503 | 26 | 203 | 0.0 | 1.6 | 0.00 | 0.00 | 0.00 | 68 | 1016.9 |
| 20260906085403 | 26 | 203 | 0.0 | 1.6 | 0.00 | 0.00 | 0.00 | 67 | 1016.9 |
| 20260906085306 | 26 | 203 | 0.0 | 3.2 | 0.00 | 0.00 | 0.00 | 67 | 1016.8 |
| 20260906085206 | 26 | 203 | 0.0 | 3.2 | 0.00 | 0.00 | 0.00 | 68 | 1016.8 |
| 20260906085103 | 26 | 203 | 0.0 | 3.2 | 0.00 | 0.00 | 0.00 | 68 | 1016.8 |
| 20260906085004 | 26 | 203 | 0.0 | 3.2 | 0.00 | 0.00 | 0.00 | 67 | 1016.9 |
| 20260906084904 | 26 | 196 | 0.0 | 3.2 | 0.00 | 0.00 | 0.00 | 67 | 1016.9 |
| 20260906084803 | 26 | 186 | 0.0 | 3.2 | 0.00 | 0.00 | 0.00 | 67 | 1016.8 |
| 20260906084703 | 26 | 179 | 0.0 | 3.2 | 0.00 | 0.00 | 0.00 | 67 | 1017.0 |
| 20260906084603 | 26 | 179 | 0.0 | 3.2 | 0.00 | 0.00 | 0.00 | 67 | 1016.8 |
| 20260906084503 | 26 | 179 | 0.0 | 3.2 | 0.00 | 0.00 | 0.00 | 67 | 1016.9 |
| 20260906084304 | 26 | 173 | 1.6 | 3.2 | 0.00 | 0.00 | 0.00 | 67 | 1016.9 |
| 20260906084204 | 26 | 167 | 1.6 | 3.2 | 0.00 | 0.00 | 0.00 | 67 | 1016.9 |
| 20260906084103 | 26 | 157 | 1.6 | 3.2 | 0.00 | 0.00 | 0.00 | 67 | 1016.8 |
| 20260906084003 | 26 | 141 | 1.6 | 3.2 | 0.00 | 0.00 | 0.00 | 67 | 1016.7 |
| 20260906083903 | 26 | 135 | 1.6 | 3.2 | 0.00 | 0.00 | 0.00 | 67 | 1016.8 |
| 20260906083803 | 26 | 135 | 1.6 | 3.2 | 0.00 | 0.00 | 0.00 | 67 | 1016.7 |
| 20260906083706 | 26 | 0 | 0.0 | 0.0 | 0.00 | 0.00 | 0.00 | 66 | 1016.7 |
| 20260906083603 | 26 | 0 | 0.0 | 0.0 | 0.00 | 0.00 | 0.00 | 66 | 1016.8 |
| 20260906083503 | 26 | 0 | 0.0 | 0.0 | 0.00 | 0.00 | 0.00 | 66 | 1016.7 |
| 20260906083403 | 26 | 0 | 0.0 | 0.0 | 0.00 | 0.00 | 0.00 | 66 | 1016.8 |
| 20260906083304 | 26 | 0 | 0.0 | 0.0 | 0.00 | 0.00 | 0.00 | 66 | 1016.7 |
| 20260906083204 | 26 | 0 | 0.0 | 0.0 | 0.00 | 0.00 | 0.00 | 66 | 1016.8 |
| 20260906083103 | 26 | 0 | 0.0 | 0.0 | 0.00 | 0.00 | 0.00 | 66 | 1016.8 |
| 20260906083003 | 26 | 0 | 0.0 | 0.0 | 0.00 | 0.00 | 0.00 | 66 | 1016.8 |
| 20260906082903 | 26 | 0 | 0.0 | 0.0 | 0.00 | 0.00 | 0.00 | 66 | 1016.7 |
| 20260906082803 | 26 | 0 | 0.0 | 0.0 | 0.00 | 0.00 | 0.00 | 66 | 1016.7 |
| 20260906082704 | 26 | 0 | 0.0 | 0.0 | 0.00 | 0.00 | 0.00 | 66 | 1016.7 |
| 20260906082604 | 26 | 0 | 0.0 | 0.0 | 0.00 | 0.00 | 0.00 | 66 | 1016.7 |
| 20260906082503 | 26 | 0 | 0.0 | 0.0 | 0.00 | 0.00 | 0.00 | 66 | 1016.7 |
| 20260906082403 | 26 | 0 | 0.0 | 0.0 | 0.00 | 0.00 | 0.00 | 66 | 1016.8 |
| 20260906082305 | 26 | 0 | 0.0 | 0.0 | 0.00 | 0.00 | 0.00 | 66 | 1016.7 |
| 20260906082206 | 26 | 0 | 0.0 | 0.0 | 0.00 | 0.00 | 0.00 | 66 | 1016.9 |
| 20260906082103 | 26 | 0 | 0.0 | 0.0 | 0.00 | 0.00 | 0.00 | 66 | 1016.7 |
| 20260906082003 | 26 | 0 | 0.0 | 0.0 | 0.00 | 0.00 | 0.00 | 66 | 1016.7 |
| 20260906081903 | 26 | 0 | 0.0 | 0.0 | 0.00 | 0.00 | 0.00 | 66 | 1016.8 |
| 20260906081804 | 26 | 0 | 0.0 | 0.0 | 0.00 | 0.00 | 0.00 | 66 | 1016.7 |
| 20260906081704 | 26 | 0 | 0.0 | 0.0 | 0.00 | 0.00 | 0.00 | 66 | 1016.7 |
| 20260906081503 | 26 | 0 | 0.0 | 0.0 | 0.00 | 0.00 | 0.00 | 66 | 1016.8 |
| 20260906081403 | 26 | 0 | 0.0 | 0.0 | 0.00 | 0.00 | 0.00 | 66 | 1016.8 |
| 20260906081303 | 26 | 0 | 0.0 | 0.0 | 0.00 | 0.00 | 0.00 | 65 | 1016.7 |
| 20260906081204 | 26 | 0 | 0.0 | 0.0 | 0.00 | 0.00 | 0.00 | 65 | 1016.8 |
| 20260906081004 | 26 | 0 | 0.0 | 0.0 | 0.00 | 0.00 | 0.00 | 65 | 1016.6 |
| 20260906080903 | 26 | 0 | 0.0 | 0.0 | 0.00 | 0.00 | 0.00 | 65 | 1016.6 |
| 20260906080803 | 27 | 0 | 0.0 | 0.0 | 0.00 | 0.00 | 0.00 | 65 | 1016.8 |
| 20260906080706 | 27 | 0 | 0.0 | 0.0 | 0.00 | 0.00 | 0.00 | 65 | 1016.8 |
| 20260906080603 | 27 | 0 | 0.0 | 0.0 | 0.00 | 0.00 | 0.00 | 65 | 1016.8 |
| 20260906080503 | 27 | 0 | 0.0 | 0.0 | 0.00 | 0.00 | 0.00 | 65 | 1016.9 |
| 20260906080403 | 27 | 0 | 0.0 | 0.0 | 0.00 | 0.00 | 0.00 | 65 | 1016.8 |
| 20260906080304 | 27 | 0 | 0.0 | 0.0 | 0.00 | 0.00 | 0.00 | 65 | 1016.8 |
| 20260906080204 | 27 | 0 | 0.0 | 0.0 | 0.00 | 0.00 | 0.00 | 65 | 1016.8 |
| 20260906080103 | 27 | 0 | 0.0 | 0.0 | 0.00 | 0.00 | 0.00 | 65 | 1016.7 |
| 20260906075903 | 27 | 0 | 0.0 | 0.0 | 0.00 | 0.00 | 0.00 | 65 | 1016.6 |
| 20260906075803 | 27 | 0 | 0.0 | 0.0 | 0.00 | 0.00 | 0.00 | 65 | 1016.8 |
| 20260906075704 | 27 | 0 | 0.0 | 0.0 | 0.00 | 0.00 | 0.00 | 65 | 1016.6 |
| 20260906075603 | 27 | 0 | 0.0 | 0.0 | 0.00 | 0.00 | 0.00 | 65 | 1016.6 |
| 20260906075503 | 27 | 0 | 0.0 | 0.0 | 0.00 | 0.00 | 0.00 | 65 | 1016.7 |
| 20260906075403 | 27 | 0 | 0.0 | 0.0 | 0.00 | 0.00 | 0.00 | 65 | 1016.7 |
| 20260906075206 | 27 | 0 | 0.0 | 0.0 | 0.00 | 0.00 | 0.00 | 65 | 1016.7 |
| 20260906075103 | 27 | 0 | 0.0 | 0.0 | 0.00 | 0.00 | 0.00 | 65 | 1016.7 |
| 20260906075003 | 27 | 0 | 0.0 | 0.0 | 0.00 | 0.00 | 0.00 | 65 | 1016.8 |
| 20260906074904 | 27 | 0 | 0.0 | 0.0 | 0.00 | 0.00 | 0.00 | 65 | 1016.6 |
| 20260906074804 | 27 | 0 | 0.0 | 0.0 | 0.00 | 0.00 | 0.00 | 64 | 1016.9 |
| 20260906074703 | 27 | 0 | 0.0 | 0.0 | 0.00 | 0.00 | 0.00 | 64 | 1016.6 |
| 20260906074603 | 27 | 0 | 0.0 | 0.0 | 0.00 | 0.00 | 0.00 | 64 | 1016.7 |
| 20260906074503 | 27 | 0 | 0.0 | 0.0 | 0.00 | 0.00 | 0.00 | 64 | 1016.7 |
| 20260906074403 | 27 | 0 | 0.0 | 0.0 | 0.00 | 0.00 | 0.00 | 64 | 1016.6 |
| 20260906074303 | 27 | 0 | 0.0 | 0.0 | 0.00 | 0.00 | 0.00 | 64 | 1016.7 |
| 20260906074204 | 27 | 0 | 0.0 | 0.0 | 0.00 | 0.00 | 0.00 | 64 | 1016.7 |
| 20260906074103 | 27 | 0 | 0.0 | 0.0 | 0.00 | 0.00 | 0.00 | 64 | 1016.7 |
| 20260906074003 | 27 | 0 | 0.0 | 0.0 | 0.00 | 0.00 | 0.00 | 64 | 1016.7 |
| 20260906073903 | 27 | 0 | 0.0 | 0.0 | 0.00 | 0.00 | 0.00 | 64 | 1016.9 |
| 20260906073803 | 27 | 0 | 0.0 | 0.0 | 0.00 | 0.00 | 0.00 | 64 | 1016.7 |
| 20260906073706 | 27 | 0 | 0.0 | 0.0 | 0.00 | 0.00 | 0.00 | 64 | 1016.6 |
| 20260906073603 | 27 | 0 | 0.0 | 0.0 | 0.00 | 0.00 | 0.00 | 64 | 1016.6 |
| 20260906073503 | 27 | 0 | 0.0 | 0.0 | 0.00 | 0.00 | 0.00 | 64 | 1016.7 |
| 20260906073304 | 27 | 0 | 0.0 | 0.0 | 0.00 | 0.00 | 0.00 | 64 | 1016.5 |
| 20260906073204 | 27 | 0 | 0.0 | 0.0 | 0.00 | 0.00 | 0.00 | 64 | 1016.6 |
| 20260906073103 | 27 | 0 | 0.0 | 0.0 | 0.00 | 0.00 | 0.00 | 64 | 1016.7 |
| 20260906072903 | 27 | 0 | 0.0 | 0.0 | 0.00 | 0.00 | 0.00 | 64 | 1016.7 |
| 20260906072804 | 27 | 0 | 0.0 | 0.0 | 0.00 | 0.00 | 0.00 | 64 | 1016.7 |
| 20260906072703 | 27 | 0 | 0.0 | 0.0 | 0.00 | 0.00 | 0.00 | 63 | 1016.7 |
| 20260906072603 | 27 | 0 | 0.0 | 0.0 | 0.00 | 0.00 | 0.00 | 63 | 1016.6 |
| 20260906072503 | 27 | 0 | 0.0 | 0.0 | 0.00 | 0.00 | 0.00 | 61 | 1016.7 |
| 20260906072403 | 27 | 0 | 0.0 | 0.0 | 0.00 | 0.00 | 0.00 | 61 | 1016.7 |
| 20260906072305 | 27 | 0 | 0.0 | 0.0 | 0.00 | 0.00 | 0.00 | 61 | 1016.7 |
| 20260906072206 | 27 | 0 | 0.0 | 0.0 | 0.00 | 0.00 | 0.00 | 61 | 1016.7 |
| 20260906072103 | 27 | 0 | 0.0 | 0.0 | 0.00 | 0.00 | 0.00 | 61 | 1016.8 |
| 20260906072003 | 27 | 0 | 0.0 | 0.0 | 0.00 | 0.00 | 0.00 | 60 | 1016.8 |
| 20260906071904 | 27 | 0 | 0.0 | 0.0 | 0.00 | 0.00 | 0.00 | 60 | 1016.6 |
| 20260906071803 | 27 | 0 | 0.0 | 0.0 | 0.00 | 0.00 | 0.00 | 60 | 1016.6 |
| 20260906071703 | 27 | 0 | 0.0 | 0.0 | 0.00 | 0.00 | 0.00 | 60 | 1016.6 |
| 20260906071603 | 27 | 0 | 0.0 | 0.0 | 0.00 | 0.00 | 0.00 | 60 | 1016.7 |
| 20260906071403 | 27 | 0 | 0.0 | 0.0 | 0.00 | 0.00 | 0.00 | 61 | 1016.7 |
| 20260906071303 | 27 | 0 | 0.0 | 0.0 | 0.00 | 0.00 | 0.00 | 61 | 1016.6 |
| 20260906071204 | 27 | 0 | 0.0 | 0.0 | 0.00 | 0.00 | 0.00 | 61 | 1016.7 |
| 20260906071003 | 27 | 0 | 0.0 | 0.0 | 0.00 | 0.00 | 0.00 | 61 | 1016.7 |
| 20260906070803 | 27 | 0 | 0.0 | 0.0 | 0.00 | 0.00 | 0.00 | 61 | 1016.7 |
| 20260906070706 | 27 | 0 | 0.0 | 0.0 | 0.00 | 0.00 | 0.00 | 61 | 1016.8 |
| 20260906070603 | 27 | 0 | 0.0 | 0.0 | 0.00 | 0.00 | 0.00 | 61 | 1016.7 |
| 20260906070503 | 27 | 0 | 0.0 | 0.0 | 0.00 | 0.00 | 0.00 | 61 | 1016.7 |
| 20260906070404 | 27 | 0 | 0.0 | 0.0 | 0.00 | 0.00 | 0.00 | 61 | 1016.7 |
| 20260906070303 | 27 | 0 | 0.0 | 0.0 | 0.00 | 0.00 | 0.00 | 61 | 1016.7 |
| 20260906070203 | 27 | 181 | 0.0 | 3.2 | 0.00 | 0.00 | 0.00 | 61 | 1016.7 |
| 20260906070103 | 27 | 181 | 0.0 | 3.2 | 0.00 | 0.00 | 0.00 | 61 | 1016.7 |
| 20260906065903 | 27 | 181 | 0.0 | 3.2 | 0.00 | 0.00 | 0.00 | 61 | 1016.8 |
| 20260906065804 | 27 | 181 | 0.0 | 3.2 | 0.00 | 0.00 | 0.00 | 61 | 1016.8 |
| 20260906065704 | 27 | 181 | 0.0 | 3.2 | 0.00 | 0.00 | 0.00 | 61 | 1016.9 |
| 20260906065603 | 27 | 181 | 0.0 | 3.2 | 0.00 | 0.00 | 0.00 | 61 | 1016.9 |
| 20260906065503 | 27 | 181 | 0.0 | 3.2 | 0.00 | 0.00 | 0.00 | 61 | 1016.8 |
| 20260906065403 | 27 | 181 | 0.0 | 3.2 | 0.00 | 0.00 | 0.00 | 61 | 1016.8 |
| 20260906065003 | 27 | 0 | 0.0 | 0.0 | 0.00 | 0.00 | 0.00 | 61 | 1016.8 |
| 20260906064903 | 27 | 0 | 0.0 | 0.0 | 0.00 | 0.00 | 0.00 | 61 | 1016.9 |
| 20260906064804 | 27 | 0 | 0.0 | 0.0 | 0.00 | 0.00 | 0.00 | 61 | 1016.8 |
| 20260906064704 | 27 | 0 | 0.0 | 0.0 | 0.00 | 0.00 | 0.00 | 61 | 1016.9 |
| 20260906064603 | 27 | 0 | 0.0 | 0.0 | 0.00 | 0.00 | 0.00 | 61 | 1016.9 |
| 20260906064503 | 27 | 0 | 0.0 | 0.0 | 0.00 | 0.00 | 0.00 | 61 | 1016.9 |
| 20260906064403 | 27 | 0 | 0.0 | 0.0 | 0.00 | 0.00 | 0.00 | 61 | 1016.9 |
| 20260906064303 | 27 | 0 | 0.0 | 0.0 | 0.00 | 0.00 | 0.00 | 61 | 1016.9 |
| 20260906064204 | 27 | 0 | 0.0 | 0.0 | 0.00 | 0.00 | 0.00 | 61 | 1017.0 |
| 20260906064104 | 27 | 0 | 0.0 | 0.0 | 0.00 | 0.00 | 0.00 | 61 | 1016.9 |
| 20260906063903 | 27 | 0 | 0.0 | 0.0 | 0.00 | 0.00 | 0.00 | 61 | 1016.8 |
| 20260906063803 | 27 | 0 | 0.0 | 0.0 | 0.00 | 0.00 | 0.00 | 61 | 1016.9 |
| 20260906063706 | 27 | 0 | 0.0 | 0.0 | 0.00 | 0.00 | 0.00 | 61 | 1016.8 |
| 20260906063603 | 27 | 0 | 0.0 | 0.0 | 0.00 | 0.00 | 0.00 | 61 | 1017.0 |
| 20260906063504 | 27 | 0 | 0.0 | 0.0 | 0.00 | 0.00 | 0.00 | 61 | 1016.9 |
| 20260906063404 | 27 | 0 | 0.0 | 0.0 | 0.00 | 0.00 | 0.00 | 61 | 1017.1 |
| 20260906063304 | 27 | 0 | 0.0 | 0.0 | 0.00 | 0.00 | 0.00 | 61 | 1016.9 |
| 20260906063203 | 27 | 0 | 0.0 | 0.0 | 0.00 | 0.00 | 0.00 | 61 | 1017.0 |
| 20260906063103 | 27 | 0 | 0.0 | 0.0 | 0.00 | 0.00 | 0.00 | 61 | 1017.0 |
| 20260906063003 | 27 | 0 | 0.0 | 0.0 | 0.00 | 0.00 | 0.00 | 61 | 1017.1 |
| 20260906062903 | 27 | 0 | 0.0 | 0.0 | 0.00 | 0.00 | 0.00 | 61 | 1017.0 |
| 20260906062704 | 27 | 0 | 0.0 | 0.0 | 0.00 | 0.00 | 0.00 | 61 | 1016.9 |
| 20260906062603 | 27 | 0 | 0.0 | 0.0 | 0.00 | 0.00 | 0.00 | 60 | 1017.0 |
| 20260906062503 | 27 | 0 | 0.0 | 0.0 | 0.00 | 0.00 | 0.00 | 60 | 1017.0 |
| 20260906062403 | 27 | 0 | 0.0 | 0.0 | 0.00 | 0.00 | 0.00 | 60 | 1017.0 |
| 20260906062306 | 27 | 0 | 0.0 | 0.0 | 0.00 | 0.00 | 0.00 | 60 | 1017.1 |
| 20260906062206 | 27 | 0 | 0.0 | 0.0 | 0.00 | 0.00 | 0.00 | 60 | 1017.1 |
| 20260906062103 | 27 | 0 | 0.0 | 0.0 | 0.00 | 0.00 | 0.00 | 60 | 1017.2 |
| 20260906062003 | 27 | 0 | 0.0 | 0.0 | 0.00 | 0.00 | 0.00 | 60 | 1016.9 |
| 20260906061803 | 27 | 0 | 0.0 | 0.0 | 0.00 | 0.00 | 0.00 | 60 | 1017.0 |
| 20260906061504 | 27 | 0 | 0.0 | 0.0 | 0.00 | 0.00 | 0.00 | 60 | 1017.0 |
| 20260906061203 | 27 | 0 | 0.0 | 0.0 | 0.00 | 0.00 | 0.00 | 60 | 1017.0 |
| 20260906061103 | 28 | 0 | 0.0 | 0.0 | 0.00 | 0.00 | 0.00 | 60 | 1017.0 |
| 20260906061003 | 28 | 0 | 0.0 | 0.0 | 0.00 | 0.00 | 0.00 | 60 | 1017.1 |
| 20260906060904 | 28 | 0 | 0.0 | 0.0 | 0.00 | 0.00 | 0.00 | 60 | 1017.1 |
| 20260906060804 | 28 | 0 | 0.0 | 0.0 | 0.00 | 0.00 | 0.00 | 60 | 1017.0 |
| 20260906060706 | 28 | 0 | 0.0 | 0.0 | 0.00 | 0.00 | 0.00 | 60 | 1017.1 |
| 20260906060604 | 28 | 0 | 0.0 | 0.0 | 0.00 | 0.00 | 0.00 | 60 | 1017.0 |
| 20260906060504 | 28 | 0 | 0.0 | 0.0 | 0.00 | 0.00 | 0.00 | 60 | 1016.9 |
| 20260906060403 | 28 | 0 | 0.0 | 0.0 | 0.00 | 0.00 | 0.00 | 60 | 1017.1 |
| 20260906060303 | 28 | 0 | 0.0 | 0.0 | 0.00 | 0.00 | 0.00 | 60 | 1017.0 |
| 20260906060203 | 28 | 0 | 0.0 | 0.0 | 0.00 | 0.00 | 0.00 | 60 | 1017.0 |
| 20260906060104 | 28 | 0 | 0.0 | 0.0 | 0.00 | 0.00 | 0.00 | 60 | 1017.0 |
| 20260906060002 | 28 | 0 | 0.0 | 0.0 | 0.00 | 0.00 | 0.00 | 60 | 1017.1 |
| 20260906055801 | 28 | 0 | 0.0 | 0.0 | 0.00 | 0.00 | 0.00 | 60 | 1017.1 |
| 20260906055701 | 28 | 0 | 0.0 | 0.0 | 0.00 | 0.00 | 0.00 | 60 | 1017.1 |
| 20260906055601 | 28 | 0 | 0.0 | 0.0 | 0.00 | 0.00 | 0.00 | 60 | 1017.1 |
| 20260906055401 | 28 | 0 | 0.0 | 0.0 | 0.00 | 0.00 | 0.00 | 60 | 1017.1 |
| 20260906055201 | 28 | 0 | 0.0 | 0.0 | 0.00 | 0.00 | 0.00 | 60 | 1017.1 |
| 20260906055101 | 28 | 0 | 0.0 | 0.0 | 0.00 | 0.00 | 0.00 | 60 | 1017.1 |
| 20260906055001 | 28 | 0 | 0.0 | 0.0 | 0.00 | 0.00 | 0.00 | 60 | 1017.1 |
| 20260906054904 | 28 | 0 | 0.0 | 0.0 | 0.00 | 0.00 | 0.00 | 60 | 1017.1 |
| 20260906054802 | 28 | 0 | 0.0 | 0.0 | 0.00 | 0.00 | 0.00 | 60 | 1017.1 |
| 20260906054701 | 28 | 0 | 0.0 | 0.0 | 0.00 | 0.00 | 0.00 | 60 | 1017.2 |
| 20260906054601 | 28 | 0 | 0.0 | 0.0 | 0.00 | 0.00 | 0.00 | 59 | 1017.1 |
| 20260906054502 | 28 | 0 | 0.0 | 0.0 | 0.00 | 0.00 | 0.00 | 59 | 1017.1 |
| 20260906054401 | 28 | 0 | 0.0 | 0.0 | 0.00 | 0.00 | 0.00 | 59 | 1017.2 |
| 20260906054301 | 28 | 0 | 0.0 | 0.0 | 0.00 | 0.00 | 0.00 | 59 | 1017.2 |
| 20260906054201 | 28 | 0 | 0.0 | 0.0 | 0.00 | 0.00 | 0.00 | 60 | 1017.3 |
| 20260906054001 | 28 | 0 | 0.0 | 0.0 | 0.00 | 0.00 | 0.00 | 60 | 1017.3 |
| 20260906053902 | 28 | 0 | 0.0 | 0.0 | 0.00 | 0.00 | 0.00 | 60 | 1017.1 |
| 20260906053701 | 28 | 0 | 0.0 | 0.0 | 0.00 | 0.00 | 0.00 | 60 | 1017.3 |
| 20260906053601 | 28 | 0 | 0.0 | 0.0 | 0.00 | 0.00 | 0.00 | 60 | 1017.2 |
| 20260906053501 | 28 | 0 | 0.0 | 0.0 | 0.00 | 0.00 | 0.00 | 60 | 1017.2 |
| 20260906053404 | 28 | 0 | 0.0 | 0.0 | 0.00 | 0.00 | 0.00 | 60 | 1017.2 |
| 20260906053301 | 28 | 0 | 0.0 | 0.0 | 0.00 | 0.00 | 0.00 | 60 | 1017.3 |
| 20260906053201 | 28 | 0 | 0.0 | 0.0 | 0.00 | 0.00 | 0.00 | 60 | 1017.3 |
| 20260906053101 | 28 | 0 | 0.0 | 0.0 | 0.00 | 0.00 | 0.00 | 60 | 1017.2 |
| 20260906053002 | 28 | 0 | 0.0 | 0.0 | 0.00 | 0.00 | 0.00 | 60 | 1017.2 |
| 20260906052901 | 28 | 0 | 0.0 | 0.0 | 0.00 | 0.00 | 0.00 | 60 | 1017.2 |
| 20260906052801 | 28 | 0 | 0.0 | 0.0 | 0.00 | 0.00 | 0.00 | 60 | 1017.3 |
| 20260906052701 | 28 | 0 | 0.0 | 0.0 | 0.00 | 0.00 | 0.00 | 60 | 1017.2 |
| 20260906052601 | 28 | 0 | 0.0 | 0.0 | 0.00 | 0.00 | 0.00 | 60 | 1017.2 |
| 20260906052501 | 28 | 0 | 0.0 | 0.0 | 0.00 | 0.00 | 0.00 | 60 | 1017.3 |
| 20260906052402 | 28 | 0 | 0.0 | 0.0 | 0.00 | 0.00 | 0.00 | 60 | 1017.2 |
| 20260906052201 | 28 | 0 | 0.0 | 0.0 | 0.00 | 0.00 | 0.00 | 60 | 1017.3 |
| 20260906052101 | 28 | 0 | 0.0 | 0.0 | 0.00 | 0.00 | 0.00 | 60 | 1017.1 |
| 20260906052001 | 28 | 0 | 0.0 | 0.0 | 0.00 | 0.00 | 0.00 | 60 | 1017.2 |
| 20260906051801 | 28 | 0 | 0.0 | 0.0 | 0.00 | 0.00 | 0.00 | 60 | 1017.2 |
| 20260906051601 | 28 | 0 | 0.0 | 0.0 | 0.00 | 0.00 | 0.00 | 60 | 1017.3 |
| 20260906051501 | 28 | 0 | 0.0 | 0.0 | 0.00 | 0.00 | 0.00 | 60 | 1017.3 |
| 20260906051402 | 28 | 0 | 0.0 | 0.0 | 0.00 | 0.00 | 0.00 | 60 | 1017.2 |
| 20260906051302 | 28 | 0 | 0.0 | 0.0 | 0.00 | 0.00 | 0.00 | 60 | 1017.2 |
| 20260906051201 | 28 | 0 | 0.0 | 0.0 | 0.00 | 0.00 | 0.00 | 60 | 1017.2 |
| 20260906051001 | 28 | 0 | 0.0 | 0.0 | 0.00 | 0.00 | 0.00 | 60 | 1017.2 |
| 20260906050901 | 28 | 0 | 0.0 | 0.0 | 0.00 | 0.00 | 0.00 | 60 | 1017.2 |
| 20260906050801 | 28 | 0 | 0.0 | 0.0 | 0.00 | 0.00 | 0.00 | 60 | 1017.2 |
| 20260906050701 | 28 | 0 | 0.0 | 0.0 | 0.00 | 0.00 | 0.00 | 60 | 1017.2 |
| 20260906050501 | 28 | 0 | 0.0 | 0.0 | 0.00 | 0.00 | 0.00 | 60 | 1017.2 |
| 20260906050404 | 28 | 0 | 0.0 | 0.0 | 0.00 | 0.00 | 0.00 | 60 | 1017.2 |
| 20260906050301 | 28 | 0 | 0.0 | 0.0 | 0.00 | 0.00 | 0.00 | 60 | 1017.0 |
| 20260906050101 | 28 | 0 | 0.0 | 0.0 | 0.00 | 0.00 | 0.00 | 60 | 1017.1 |
| 20260906050002 | 28 | 0 | 0.0 | 0.0 | 0.00 | 0.00 | 0.00 | 60 | 1017.3 |
| 20260906045801 | 28 | 0 | 0.0 | 0.0 | 0.00 | 0.00 | 0.00 | 60 | 1017.1 |
| 20260906045601 | 28 | 0 | 0.0 | 0.0 | 0.00 | 0.00 | 0.00 | 60 | 1017.2 |
| 20260906045501 | 28 | 0 | 0.0 | 0.0 | 0.00 | 0.00 | 0.00 | 60 | 1017.3 |
| 20260906045402 | 28 | 0 | 0.0 | 0.0 | 0.00 | 0.00 | 0.00 | 60 | 1017.1 |
| 20260906045305 | 28 | 0 | 0.0 | 0.0 | 0.00 | 0.00 | 0.00 | 60 | 1017.2 |
| 20260906045201 | 28 | 0 | 0.0 | 0.0 | 0.00 | 0.00 | 0.00 | 60 | 1017.2 |
| 20260906045101 | 28 | 0 | 0.0 | 0.0 | 0.00 | 0.00 | 0.00 | 60 | 1017.2 |
| 20260906044904 | 28 | 0 | 0.0 | 0.0 | 0.00 | 0.00 | 0.00 | 60 | 1017.2 |
| 20260906044801 | 28 | 0 | 0.0 | 0.0 | 0.00 | 0.00 | 0.00 | 60 | 1017.2 |
| 20260906044701 | 28 | 0 | 0.0 | 0.0 | 0.00 | 0.00 | 0.00 | 60 | 1017.2 |
| 20260906044601 | 28 | 0 | 0.0 | 0.0 | 0.00 | 0.00 | 0.00 | 60 | 1017.2 |
| 20260906044402 | 28 | 0 | 0.0 | 0.0 | 0.00 | 0.00 | 0.00 | 60 | 1017.3 |
| 20260906044201 | 28 | 0 | 0.0 | 0.0 | 0.00 | 0.00 | 0.00 | 60 | 1017.2 |
| 20260906044101 | 28 | 0 | 0.0 | 0.0 | 0.00 | 0.00 | 0.00 | 60 | 1017.2 |
| 20260906044001 | 28 | 0 | 0.0 | 0.0 | 0.00 | 0.00 | 0.00 | 60 | 1017.1 |
| 20260906043801 | 28 | 0 | 0.0 | 0.0 | 0.00 | 0.00 | 0.00 | 60 | 1017.2 |
| 20260906043602 | 28 | 0 | 0.0 | 0.0 | 0.00 | 0.00 | 0.00 | 60 | 1017.3 |
| 20260906043501 | 28 | 0 | 0.0 | 0.0 | 0.00 | 0.00 | 0.00 | 60 | 1017.2 |
| 20260906043403 | 28 | 0 | 0.0 | 0.0 | 0.00 | 0.00 | 0.00 | 60 | 1017.3 |
| 20260906043302 | 28 | 0 | 0.0 | 0.0 | 0.00 | 0.00 | 0.00 | 60 | 1017.3 |
| 20260906043101 | 28 | 0 | 0.0 | 0.0 | 0.00 | 0.00 | 0.00 | 60 | 1017.3 |
| 20260906043001 | 28 | 0 | 0.0 | 0.0 | 0.00 | 0.00 | 0.00 | 60 | 1017.2 |
| 20260906042901 | 28 | 0 | 0.0 | 0.0 | 0.00 | 0.00 | 0.00 | 60 | 1017.2 |
| 20260906042801 | 28 | 0 | 0.0 | 0.0 | 0.00 | 0.00 | 0.00 | 60 | 1017.1 |
| 20260906042702 | 28 | 0 | 0.0 | 0.0 | 0.00 | 0.00 | 0.00 | 60 | 1017.1 |
| 20260906042601 | 28 | 0 | 0.0 | 0.0 | 0.00 | 0.00 | 0.00 | 60 | 1017.1 |
| 20260906042501 | 28 | 0 | 0.0 | 0.0 | 0.00 | 0.00 | 0.00 | 59 | 1017.1 |
| 20260906042401 | 28 | 0 | 0.0 | 0.0 | 0.00 | 0.00 | 0.00 | 59 | 1017.1 |
| 20260906042301 | 28 | 0 | 0.0 | 0.0 | 0.00 | 0.00 | 0.00 | 59 | 1017.2 |
| 20260906042201 | 28 | 0 | 0.0 | 0.0 | 0.00 | 0.00 | 0.00 | 59 | 1017.2 |
| 20260906042101 | 28 | 0 | 0.0 | 0.0 | 0.00 | 0.00 | 0.00 | 59 | 1017.2 |
| 20260906042002 | 28 | 0 | 0.0 | 0.0 | 0.00 | 0.00 | 0.00 | 59 | 1017.1 |
| 20260906041905 | 28 | 0 | 0.0 | 0.0 | 0.00 | 0.00 | 0.00 | 59 | 1017.0 |
| 20260906041801 | 28 | 0 | 0.0 | 0.0 | 0.00 | 0.00 | 0.00 | 59 | 1016.9 |
| 20260906041701 | 28 | 0 | 0.0 | 0.0 | 0.00 | 0.00 | 0.00 | 59 | 1017.0 |
| 20260906041601 | 28 | 0 | 0.0 | 0.0 | 0.00 | 0.00 | 0.00 | 59 | 1017.0 |
| 20260906041501 | 28 | 0 | 0.0 | 0.0 | 0.00 | 0.00 | 0.00 | 59 | 1017.0 |
| 20260906041402 | 28 | 0 | 0.0 | 0.0 | 0.00 | 0.00 | 0.00 | 59 | 1017.0 |
| 20260906041301 | 28 | 0 | 0.0 | 0.0 | 0.00 | 0.00 | 0.00 | 59 | 1017.1 |
| 20260906041201 | 28 | 0 | 0.0 | 0.0 | 0.00 | 0.00 | 0.00 | 60 | 1017.0 |
| 20260906041101 | 28 | 0 | 0.0 | 0.0 | 0.00 | 0.00 | 0.00 | 60 | 1017.0 |
| 20260906041001 | 28 | 0 | 0.0 | 0.0 | 0.00 | 0.00 | 0.00 | 60 | 1017.0 |
| 20260906040901 | 28 | 0 | 0.0 | 0.0 | 0.00 | 0.00 | 0.00 | 60 | 1016.9 |
| 20260906040802 | 29 | 0 | 0.0 | 0.0 | 0.00 | 0.00 | 0.00 | 60 | 1017.0 |
| 20260906040701 | 29 | 0 | 0.0 | 0.0 | 0.00 | 0.00 | 0.00 | 60 | 1017.1 |
| 20260906040601 | 29 | 0 | 0.0 | 0.0 | 0.00 | 0.00 | 0.00 | 60 | 1017.1 |
| 20260906040501 | 29 | 0 | 0.0 | 0.0 | 0.00 | 0.00 | 0.00 | 60 | 1017.0 |
| 20260906040404 | 29 | 0 | 0.0 | 0.0 | 0.00 | 0.00 | 0.00 | 60 | 1017.1 |
| 20260906040301 | 29 | 0 | 0.0 | 0.0 | 0.00 | 0.00 | 0.00 | 60 | 1017.0 |
| 20260906040201 | 29 | 0 | 0.0 | 0.0 | 0.00 | 0.00 | 0.00 | 60 | 1017.0 |
| 20260906040001 | 29 | 0 | 0.0 | 0.0 | 0.00 | 0.00 | 0.00 | 60 | 1017.0 |
| 20260906035901 | 29 | 0 | 0.0 | 0.0 | 0.00 | 0.00 | 0.00 | 60 | 1017.0 |
| 20260906035801 | 29 | 0 | 0.0 | 0.0 | 0.00 | 0.00 | 0.00 | 59 | 1017.0 |
| 20260906035701 | 29 | 0 | 0.0 | 0.0 | 0.00 | 0.00 | 0.00 | 59 | 1016.9 |
| 20260906035601 | 29 | 0 | 0.0 | 0.0 | 0.00 | 0.00 | 0.00 | 59 | 1017.0 |
| 20260906035501 | 29 | 0 | 0.0 | 0.0 | 0.00 | 0.00 | 0.00 | 59 | 1016.9 |
| 20260906035402 | 29 | 0 | 0.0 | 0.0 | 0.00 | 0.00 | 0.00 | 59 | 1016.9 |
| 20260906035305 | 29 | 0 | 0.0 | 0.0 | 0.00 | 0.00 | 0.00 | 59 | 1017.0 |
| 20260906035201 | 29 | 0 | 0.0 | 0.0 | 0.00 | 0.00 | 0.00 | 59 | 1016.9 |
| 20260906034904 | 29 | 0 | 0.0 | 0.0 | 0.00 | 0.00 | 0.00 | 59 | 1016.8 |
| 20260906034801 | 29 | 0 | 0.0 | 0.0 | 0.00 | 0.00 | 0.00 | 59 | 1016.8 |
| 20260906034401 | 29 | 0 | 0.0 | 0.0 | 0.00 | 0.00 | 0.00 | 58 | 1016.8 |
| 20260906034201 | 29 | 0 | 0.0 | 0.0 | 0.00 | 0.00 | 0.00 | 58 | 1016.9 |
| 20260906034001 | 29 | 0 | 0.0 | 0.0 | 0.00 | 0.00 | 0.00 | 58 | 1016.8 |
| 20260906033902 | 29 | 0 | 0.0 | 0.0 | 0.00 | 0.00 | 0.00 | 58 | 1016.9 |
| 20260906033801 | 29 | 0 | 0.0 | 0.0 | 0.00 | 0.00 | 0.00 | 58 | 1016.8 |
| 20260906033701 | 29 | 0 | 0.0 | 0.0 | 0.00 | 0.00 | 0.00 | 58 | 1016.7 |
| 20260906033501 | 29 | 0 | 0.0 | 0.0 | 0.00 | 0.00 | 0.00 | 58 | 1016.7 |
| 20260906033301 | 29 | 0 | 0.0 | 0.0 | 0.00 | 0.00 | 0.00 | 58 | 1016.7 |
| 20260906033201 | 30 | 0 | 0.0 | 0.0 | 0.00 | 0.00 | 0.00 | 58 | 1016.7 |
| 20260906033001 | 30 | 0 | 0.0 | 0.0 | 0.00 | 0.00 | 0.00 | 58 | 1016.8 |
| 20260906032902 | 30 | 0 | 0.0 | 0.0 | 0.00 | 0.00 | 0.00 | 58 | 1016.6 |
| 20260906032801 | 30 | 0 | 0.0 | 0.0 | 0.00 | 0.00 | 0.00 | 58 | 1016.6 |
| 20260906032701 | 30 | 0 | 0.0 | 0.0 | 0.00 | 0.00 | 0.00 | 58 | 1016.7 |
| 20260906032601 | 30 | 0 | 0.0 | 0.0 | 0.00 | 0.00 | 0.00 | 58 | 1016.8 |
| 20260906032501 | 30 | 0 | 0.0 | 0.0 | 0.00 | 0.00 | 0.00 | 58 | 1016.8 |
| 20260906032401 | 30 | 0 | 0.0 | 0.0 | 0.00 | 0.00 | 0.00 | 57 | 1016.6 |
| 20260906032305 | 30 | 0 | 0.0 | 0.0 | 0.00 | 0.00 | 0.00 | 57 | 1016.7 |
| 20260906032201 | 30 | 0 | 0.0 | 0.0 | 0.00 | 0.00 | 0.00 | 57 | 1016.7 |
| 20260906032001 | 30 | 0 | 0.0 | 0.0 | 0.00 | 0.00 | 0.00 | 57 | 1016.6 |
| 20260906031904 | 30 | 0 | 0.0 | 0.0 | 0.00 | 0.00 | 0.00 | 57 | 1016.7 |
| 20260906031801 | 30 | 0 | 0.0 | 0.0 | 0.00 | 0.00 | 0.00 | 57 | 1016.7 |
| 20260906031701 | 30 | 0 | 0.0 | 0.0 | 0.00 | 0.00 | 0.00 | 57 | 1016.6 |
| 20260906031601 | 30 | 0 | 0.0 | 0.0 | 0.00 | 0.00 | 0.00 | 57 | 1016.7 |
| 20260906031401 | 30 | 0 | 0.0 | 0.0 | 0.00 | 0.00 | 0.00 | 57 | 1016.8 |
| 20260906031301 | 30 | 0 | 0.0 | 0.0 | 0.00 | 0.00 | 0.00 | 57 | 1016.6 |
| 20260906031201 | 30 | 0 | 0.0 | 0.0 | 0.00 | 0.00 | 0.00 | 56 | 1016.7 |
| 20260906031101 | 30 | 0 | 0.0 | 0.0 | 0.00 | 0.00 | 0.00 | 56 | 1016.6 |
| 20260906031001 | 30 | 0 | 0.0 | 0.0 | 0.00 | 0.00 | 0.00 | 56 | 1016.7 |
| 20260906030901 | 30 | 0 | 0.0 | 0.0 | 0.00 | 0.00 | 0.00 | 56 | 1016.7 |
| 20260906030802 | 30 | 0 | 0.0 | 0.0 | 0.00 | 0.00 | 0.00 | 56 | 1016.5 |
| 20260906030701 | 30 | 0 | 0.0 | 0.0 | 0.00 | 0.00 | 0.00 | 56 | 1016.6 |
| 20260906030501 | 30 | 0 | 0.0 | 0.0 | 0.00 | 0.00 | 0.00 | 56 | 1016.6 |
| 20260906030404 | 30 | 0 | 0.0 | 0.0 | 0.00 | 0.00 | 0.00 | 56 | 1016.5 |
| 20260906030301 | 30 | 0 | 0.0 | 0.0 | 0.00 | 0.00 | 0.00 | 56 | 1016.5 |
| 20260906030201 | 30 | 0 | 0.0 | 0.0 | 0.00 | 0.00 | 0.00 | 56 | 1016.5 |
| 20260906030101 | 30 | 0 | 0.0 | 0.0 | 0.00 | 0.00 | 0.00 | 56 | 1016.3 |
| 20260906030001 | 30 | 0 | 0.0 | 0.0 | 0.00 | 0.00 | 0.00 | 56 | 1016.6 |
| 20260906025801 | 30 | 0 | 0.0 | 0.0 | 0.00 | 0.00 | 0.00 | 56 | 1016.6 |
| 20260906025701 | 30 | 0 | 0.0 | 0.0 | 0.00 | 0.00 | 0.00 | 56 | 1016.4 |
| 20260906025501 | 30 | 0 | 0.0 | 0.0 | 0.00 | 0.00 | 0.00 | 56 | 1016.4 |
| 20260906025306 | 30 | 0 | 0.0 | 0.0 | 0.00 | 0.00 | 0.00 | 56 | 1016.4 |
| 20260906025201 | 30 | 0 | 0.0 | 0.0 | 0.00 | 0.00 | 0.00 | 56 | 1016.4 |
| 20260906025101 | 30 | 0 | 0.0 | 0.0 | 0.00 | 0.00 | 0.00 | 56 | 1016.2 |
| 20260906025001 | 30 | 0 | 0.0 | 0.0 | 0.00 | 0.00 | 0.00 | 55 | 1016.3 |
| 20260906024904 | 30 | 0 | 0.0 | 0.0 | 0.00 | 0.00 | 0.00 | 55 | 1016.4 |
| 20260906024801 | 30 | 0 | 0.0 | 0.0 | 0.00 | 0.00 | 0.00 | 55 | 1016.3 |
| 20260906024701 | 30 | 0 | 0.0 | 0.0 | 0.00 | 0.00 | 0.00 | 55 | 1016.2 |
| 20260906024602 | 30 | 0 | 0.0 | 0.0 | 0.00 | 0.00 | 0.00 | 55 | 1016.2 |
| 20260906024501 | 30 | 0 | 0.0 | 0.0 | 0.00 | 0.00 | 0.00 | 55 | 1016.2 |
| 20260906024401 | 30 | 0 | 0.0 | 0.0 | 0.00 | 0.00 | 0.00 | 55 | 1016.2 |
| 20260906024301 | 30 | 0 | 0.0 | 0.0 | 0.00 | 0.00 | 0.00 | 55 | 1016.3 |
| 20260906024201 | 30 | 1 | 0.0 | 3.2 | 0.00 | 0.00 | 0.00 | 55 | 1016.2 |
| 20260906024102 | 30 | 1 | 0.0 | 3.2 | 0.00 | 0.00 | 0.00 | 55 | 1016.2 |
| 20260906024001 | 30 | 1 | 0.0 | 3.2 | 0.00 | 0.00 | 0.00 | 55 | 1016.2 |
| 20260906023901 | 30 | 1 | 0.0 | 3.2 | 0.00 | 0.00 | 0.00 | 55 | 1016.2 |
| 20260906023801 | 30 | 1 | 0.0 | 3.2 | 0.00 | 0.00 | 0.00 | 55 | 1016.2 |
| 20260906023701 | 30 | 1 | 0.0 | 3.2 | 0.00 | 0.00 | 0.00 | 55 | 1016.3 |
| 20260906023601 | 30 | 1 | 0.0 | 3.2 | 0.00 | 0.00 | 0.00 | 55 | 1016.2 |
| 20260906023502 | 30 | 1 | 0.0 | 3.2 | 0.00 | 0.00 | 0.00 | 55 | 1016.2 |
| 20260906023404 | 31 | 1 | 0.0 | 3.2 | 0.00 | 0.00 | 0.00 | 55 | 1016.2 |
| 20260906023301 | 31 | 1 | 0.0 | 3.2 | 0.00 | 0.00 | 0.00 | 55 | 1016.1 |
| 20260906023201 | 31 | 1 | 1.6 | 3.2 | 0.00 | 0.00 | 0.00 | 55 | 1016.2 |
| 20260906023101 | 31 | 1 | 1.6 | 3.2 | 0.00 | 0.00 | 0.00 | 55 | 1016.2 |
| 20260906023001 | 31 | 1 | 1.6 | 3.2 | 0.00 | 0.00 | 0.00 | 55 | 1015.9 |
| 20260906022901 | 31 | 1 | 0.0 | 3.2 | 0.00 | 0.00 | 0.00 | 54 | 1016.0 |
| 20260906022701 | 31 | 1 | 0.0 | 3.2 | 0.00 | 0.00 | 0.00 | 54 | 1016.0 |
| 20260906022601 | 31 | 1 | 0.0 | 3.2 | 0.00 | 0.00 | 0.00 | 54 | 1016.1 |
| 20260906022501 | 31 | 1 | 1.6 | 3.2 | 0.00 | 0.00 | 0.00 | 54 | 1016.0 |
| 20260906022401 | 31 | 1 | 1.6 | 3.2 | 0.00 | 0.00 | 0.00 | 54 | 1016.0 |
| 20260906022301 | 31 | 1 | 1.6 | 3.2 | 0.00 | 0.00 | 0.00 | 54 | 1016.0 |
| 20260906022202 | 31 | 1 | 0.0 | 1.6 | 0.00 | 0.00 | 0.00 | 54 | 1016.1 |
| 20260906022101 | 31 | 1 | 0.0 | 1.6 | 0.00 | 0.00 | 0.00 | 54 | 1016.0 |
| 20260906022001 | 31 | 1 | 0.0 | 1.6 | 0.00 | 0.00 | 0.00 | 54 | 1016.0 |
| 20260906021904 | 31 | 1 | 0.0 | 3.2 | 0.00 | 0.00 | 0.00 | 54 | 1015.9 |
| 20260906021801 | 31 | 1 | 0.0 | 3.2 | 0.00 | 0.00 | 0.00 | 54 | 1015.9 |
| 20260906021601 | 31 | 1 | 0.0 | 3.2 | 0.00 | 0.00 | 0.00 | 53 | 1016.0 |
| 20260906021502 | 31 | 1 | 0.0 | 3.2 | 0.00 | 0.00 | 0.00 | 53 | 1015.9 |
| 20260906021402 | 31 | 1 | 0.0 | 3.2 | 0.00 | 0.00 | 0.00 | 53 | 1015.9 |
| 20260906021301 | 31 | 1 | 0.0 | 3.2 | 0.00 | 0.00 | 0.00 | 53 | 1015.8 |
| 20260906021101 | 31 | 1 | 0.0 | 3.2 | 0.00 | 0.00 | 0.00 | 53 | 1016.0 |
| 20260906021001 | 31 | 1 | 1.6 | 3.2 | 0.00 | 0.00 | 0.00 | 53 | 1015.8 |
| 20260906020902 | 31 | 1 | 1.6 | 3.2 | 0.00 | 0.00 | 0.00 | 53 | 1015.8 |
| 20260906020801 | 31 | 1 | 0.0 | 3.2 | 0.00 | 0.00 | 0.00 | 53 | 1015.9 |
| 20260906020701 | 31 | 1 | 1.6 | 3.2 | 0.00 | 0.00 | 0.00 | 53 | 1015.7 |
| 20260906020601 | 31 | 1 | 1.6 | 3.2 | 0.00 | 0.00 | 0.00 | 53 | 1015.7 |
| 20260906020404 | 31 | 1 | 1.6 | 3.2 | 0.00 | 0.00 | 0.00 | 53 | 1015.7 |
| 20260906020301 | 31 | 1 | 1.6 | 3.2 | 0.00 | 0.00 | 0.00 | 53 | 1015.7 |
| 20260906020001 | 31 | 1 | 1.6 | 3.2 | 0.00 | 0.00 | 0.00 | 53 | 1015.8 |
| 20260906015901 | 31 | 356 | 3.2 | 3.2 | 0.00 | 0.00 | 0.00 | 53 | 1015.7 |
| 20260906015801 | 31 | 355 | 1.6 | 3.2 | 0.00 | 0.00 | 0.00 | 53 | 1015.7 |
| 20260906015702 | 31 | 355 | 3.2 | 3.2 | 0.00 | 0.00 | 0.00 | 53 | 1015.7 |
| 20260906015602 | 31 | 355 | 3.2 | 3.2 | 0.00 | 0.00 | 0.00 | 53 | 1015.7 |
| 20260906015501 | 31 | 354 | 3.2 | 3.2 | 0.00 | 0.00 | 0.00 | 53 | 1015.7 |
| 20260906015305 | 31 | 353 | 3.2 | 3.2 | 0.00 | 0.00 | 0.00 | 54 | 1015.6 |
| 20260906015201 | 31 | 351 | 3.2 | 3.2 | 0.00 | 0.00 | 0.00 | 54 | 1015.7 |
| 20260906015101 | 31 | 350 | 3.2 | 3.2 | 0.00 | 0.00 | 0.00 | 54 | 1015.7 |
| 20260906015002 | 31 | 347 | 1.6 | 3.2 | 0.00 | 0.00 | 0.00 | 54 | 1015.7 |
| 20260906014903 | 31 | 354 | 1.6 | 3.2 | 0.00 | 0.00 | 0.00 | 54 | 1015.6 |
| 20260906014702 | 31 | 1 | 3.2 | 3.2 | 0.00 | 0.00 | 0.00 | 54 | 1015.7 |
| 20260906014602 | 31 | 0 | 0.0 | 0.0 | 0.00 | 0.00 | 0.00 | 54 | 1015.5 |
| 20260906014501 | 31 | 1 | 0.0 | 3.2 | 0.00 | 0.00 | 0.00 | 54 | 1015.5 |
| 20260906014401 | 31 | 1 | 0.0 | 3.2 | 0.00 | 0.00 | 0.00 | 54 | 1015.5 |
| 20260906014201 | 31 | 1 | 0.0 | 3.2 | 0.00 | 0.00 | 0.00 | 53 | 1015.5 |
| 20260906014102 | 31 | 1 | 0.0 | 3.2 | 0.00 | 0.00 | 0.00 | 53 | 1015.4 |
| 20260906014001 | 31 | 1 | 0.0 | 3.2 | 0.00 | 0.00 | 0.00 | 53 | 1015.6 |
| 20260906013801 | 31 | 1 | 0.0 | 3.2 | 0.00 | 0.00 | 0.00 | 53 | 1015.6 |
| 20260906013701 | 31 | 1 | 0.0 | 3.2 | 0.00 | 0.00 | 0.00 | 53 | 1015.6 |
| 20260906013601 | 31 | 1 | 0.0 | 3.2 | 0.00 | 0.00 | 0.00 | 53 | 1015.5 |
| 20260906013502 | 31 | 1 | 1.6 | 3.2 | 0.00 | 0.00 | 0.00 | 53 | 1015.6 |
| 20260906013403 | 31 | 1 | 1.6 | 3.2 | 0.00 | 0.00 | 0.00 | 53 | 1015.5 |
| 20260906013302 | 31 | 1 | 1.6 | 3.2 | 0.00 | 0.00 | 0.00 | 53 | 1015.4 |
| 20260906013102 | 31 | 358 | 1.6 | 3.2 | 0.00 | 0.00 | 0.00 | 53 | 1015.4 |
| 20260906013001 | 31 | 355 | 1.6 | 3.2 | 0.00 | 0.00 | 0.00 | 53 | 1015.5 |
| 20260906012901 | 31 | 353 | 1.6 | 3.2 | 0.00 | 0.00 | 0.00 | 53 | 1015.5 |
| 20260906012801 | 31 | 350 | 1.6 | 3.2 | 0.00 | 0.00 | 0.00 | 53 | 1015.4 |
| 20260906012602 | 31 | 342 | 1.6 | 3.2 | 0.00 | 0.00 | 0.00 | 53 | 1015.2 |
| 20260906012502 | 31 | 338 | 1.6 | 3.2 | 0.00 | 0.00 | 0.00 | 53 | 1015.4 |
| 20260906012401 | 31 | 331 | 1.6 | 3.2 | 0.00 | 0.00 | 0.00 | 53 | 1015.3 |
| 20260906012301 | 31 | 318 | 1.6 | 3.2 | 0.00 | 0.00 | 0.00 | 53 | 1015.3 |
| 20260906012101 | 31 | 314 | 0.0 | 1.6 | 0.00 | 0.00 | 0.00 | 53 | 1015.3 |
| 20260906012002 | 31 | 314 | 1.6 | 1.6 | 0.00 | 0.00 | 0.00 | 53 | 1015.3 |
| 20260906011903 | 31 | 314 | 0.0 | 3.2 | 0.00 | 0.00 | 0.00 | 53 | 1015.2 |
| 20260906011801 | 31 | 320 | 0.0 | 3.2 | 0.00 | 0.00 | 0.00 | 53 | 1015.2 |
| 20260906011702 | 31 | 336 | 0.0 | 3.2 | 0.00 | 0.00 | 0.00 | 53 | 1015.3 |
| 20260906011501 | 32 | 341 | 0.0 | 3.2 | 0.00 | 0.00 | 0.00 | 53 | 1015.3 |
| 20260906011401 | 32 | 343 | 0.0 | 3.2 | 0.00 | 0.00 | 0.00 | 53 | 1015.3 |
| 20260906011301 | 32 | 343 | 0.0 | 3.2 | 0.00 | 0.00 | 0.00 | 53 | 1015.3 |
| 20260906011102 | 32 | 343 | 0.0 | 3.2 | 0.00 | 0.00 | 0.00 | 53 | 1015.3 |
| 20260906011001 | 32 | 344 | 1.6 | 3.2 | 0.00 | 0.00 | 0.00 | 52 | 1015.2 |
| 20260906010901 | 32 | 352 | 1.6 | 3.2 | 0.00 | 0.00 | 0.00 | 53 | 1015.3 |
| 20260906010801 | 32 | 1 | 1.6 | 3.2 | 0.00 | 0.00 | 0.00 | 52 | 1015.2 |
| 20260906010701 | 32 | 1 | 1.6 | 3.2 | 0.00 | 0.00 | 0.00 | 52 | 1015.3 |
| 20260906010601 | 32 | 1 | 0.0 | 3.2 | 0.00 | 0.00 | 0.00 | 52 | 1015.3 |
| 20260906010502 | 32 | 1 | 0.0 | 3.2 | 0.00 | 0.00 | 0.00 | 52 | 1015.2 |
| 20260906010403 | 32 | 1 | 0.0 | 3.2 | 0.00 | 0.00 | 0.00 | 52 | 1015.2 |
| 20260906010201 | 32 | 1 | 0.0 | 3.2 | 0.00 | 0.00 | 0.00 | 52 | 1015.3 |
| 20260906005901 | 32 | 1 | 0.0 | 3.2 | 0.00 | 0.00 | 0.00 | 52 | 1015.3 |
| 20260906005801 | 32 | 1 | 1.6 | 3.2 | 0.00 | 0.00 | 0.00 | 52 | 1015.2 |
| 20260906005702 | 32 | 1 | 0.0 | 3.2 | 0.00 | 0.00 | 0.00 | 52 | 1015.2 |
| 20260906005602 | 32 | 1 | 0.0 | 3.2 | 0.00 | 0.00 | 0.00 | 52 | 1015.1 |
| 20260906005501 | 32 | 1 | 1.6 | 3.2 | 0.00 | 0.00 | 0.00 | 49 | 1015.1 |
| 20260906005401 | 32 | 1 | 1.6 | 3.2 | 0.00 | 0.00 | 0.00 | 49 | 1015.3 |
| 20260906005301 | 32 | 1 | 0.0 | 1.6 | 0.00 | 0.00 | 0.00 | 49 | 1015.3 |
| 20260906005101 | 32 | 1 | 0.0 | 1.6 | 0.00 | 0.00 | 0.00 | 48 | 1015.3 |
| 20260906005002 | 32 | 1 | 0.0 | 1.6 | 0.00 | 0.00 | 0.00 | 48 | 1015.3 |
| 20260906004902 | 32 | 1 | 0.0 | 1.6 | 0.00 | 0.00 | 0.00 | 48 | 1015.3 |
| 20260906004801 | 32 | 1 | 0.0 | 1.6 | 0.00 | 0.00 | 0.00 | 48 | 1015.3 |
| 20260906004701 | 32 | 1 | 0.0 | 3.2 | 0.00 | 0.00 | 0.00 | 48 | 1015.4 |
| 20260906004601 | 32 | 1 | 0.0 | 3.2 | 0.00 | 0.00 | 0.00 | 48 | 1015.3 |
| 20260906004501 | 32 | 1 | 0.0 | 3.2 | 0.00 | 0.00 | 0.00 | 48 | 1015.1 |
| 20260906004402 | 32 | 1 | 0.0 | 3.2 | 0.00 | 0.00 | 0.00 | 48 | 1015.2 |
| 20260906004201 | 32 | 1 | 0.0 | 3.2 | 0.00 | 0.00 | 0.00 | 48 | 1015.1 |
| 20260906004101 | 32 | 1 | 0.0 | 3.2 | 0.00 | 0.00 | 0.00 | 47 | 1015.2 |
| 20260906003901 | 32 | 21 | 0.0 | 3.2 | 0.00 | 0.00 | 0.00 | 47 | 1015.2 |
| 20260906003802 | 32 | 29 | 0.0 | 3.2 | 0.00 | 0.00 | 0.00 | 47 | 1015.2 |
| 20260906003702 | 32 | 36 | 1.6 | 3.2 | 0.00 | 0.00 | 0.00 | 47 | 1015.1 |
| 20260906003601 | 33 | 40 | 0.0 | 3.2 | 0.00 | 0.00 | 0.00 | 46 | 1015.2 |
| 20260906003501 | 33 | 34 | 0.0 | 3.2 | 0.00 | 0.00 | 0.00 | 46 | 1015.2 |
| 20260906003301 | 33 | 22 | 0.0 | 3.2 | 0.00 | 0.00 | 0.00 | 46 | 1015.1 |
| 20260906003201 | 33 | 22 | 0.0 | 3.2 | 0.00 | 0.00 | 0.00 | 46 | 1015.1 |
| 20260906003001 | 33 | 22 | 1.6 | 3.2 | 0.00 | 0.00 | 0.00 | 46 | 1015.1 |
| 20260906002901 | 33 | 16 | 1.6 | 3.2 | 0.00 | 0.00 | 0.00 | 46 | 1015.1 |
| 20260906002701 | 33 | 1 | 0.0 | 3.2 | 0.00 | 0.00 | 0.00 | 46 | 1015.2 |
| 20260906002601 | 33 | 1 | 0.0 | 3.2 | 0.00 | 0.00 | 0.00 | 46 | 1015.1 |
| 20260906002502 | 33 | 1 | 1.6 | 3.2 | 0.00 | 0.00 | 0.00 | 46 | 1015.2 |
| 20260906002401 | 33 | 1 | 3.2 | 3.2 | 0.00 | 0.00 | 0.00 | 46 | 1015.2 |
| 20260906002301 | 33 | 1 | 0.0 | 3.2 | 0.00 | 0.00 | 0.00 | 46 | 1015.2 |
| 20260906002201 | 33 | 356 | 0.0 | 3.2 | 0.00 | 0.00 | 0.00 | 45 | 1015.1 |
| 20260906002101 | 33 | 352 | 0.0 | 3.2 | 0.00 | 0.00 | 0.00 | 45 | 1015.2 |
| 20260906002002 | 33 | 354 | 0.0 | 3.2 | 0.00 | 0.00 | 0.00 | 45 | 1015.2 |
| 20260906001801 | 33 | 355 | 0.0 | 3.2 | 0.00 | 0.00 | 0.00 | 45 | 1015.2 |
| 20260906001701 | 33 | 356 | 0.0 | 3.2 | 0.00 | 0.00 | 0.00 | 45 | 1015.2 |
| 20260906001601 | 33 | 351 | 1.6 | 3.2 | 0.00 | 0.00 | 0.00 | 45 | 1015.2 |
| 20260906001502 | 33 | 345 | 1.6 | 3.2 | 0.00 | 0.00 | 0.00 | 45 | 1015.2 |
| 20260906001401 | 33 | 340 | 0.0 | 3.2 | 0.00 | 0.00 | 0.00 | 45 | 1015.1 |
| 20260906001201 | 33 | 332 | 0.0 | 3.2 | 0.00 | 0.00 | 0.00 | 45 | 1015.3 |
| 20260906001101 | 33 | 330 | 1.6 | 3.2 | 0.00 | 0.00 | 0.00 | 44 | 1015.2 |
| 20260906001001 | 33 | 325 | 1.6 | 3.2 | 0.00 | 0.00 | 0.00 | 44 | 1015.1 |
| 20260906000901 | 33 | 321 | 1.6 | 3.2 | 0.00 | 0.00 | 0.00 | 44 | 1015.2 |
| 20260906000802 | 33 | 322 | 1.6 | 3.2 | 0.00 | 0.00 | 0.00 | 44 | 1015.1 |
| 20260906000701 | 33 | 323 | 1.6 | 3.2 | 0.00 | 0.00 | 0.00 | 44 | 1015.1 |
| 20260906000601 | 33 | 326 | 3.2 | 3.2 | 0.00 | 0.00 | 0.00 | 43 | 1015.1 |
| 20260906000403 | 33 | 334 | 3.2 | 3.2 | 0.00 | 0.00 | 0.00 | 43 | 1015.2 |
| 20260906000303 | 33 | 336 | 3.2 | 3.2 | 0.00 | 0.00 | 0.00 | 43 | 1015.1 |
| 20260906000204 | 33 | 341 | 3.2 | 3.2 | 0.00 | 0.00 | 0.00 | 43 | 1015.2 |
| 20260906000001 | 33 | 344 | 3.2 | 3.2 | 0.00 | 0.00 | 0.00 | 43 | 1015.2 |
| 20260905235901 | 34 | 350 | 3.2 | 3.2 | 0.00 | 0.00 | 0.00 | 43 | 1015.2 |
| 20260905235801 | 34 | 349 | 1.6 | 3.2 | 0.00 | 0.00 | 0.00 | 43 | 1015.1 |
| 20260905235701 | 34 | 346 | 1.6 | 3.2 | 0.00 | 0.00 | 0.00 | 43 | 1015.1 |
| 20260905235602 | 34 | 347 | 3.2 | 3.2 | 0.00 | 0.00 | 0.00 | 43 | 1015.3 |
| 20260905235501 | 34 | 346 | 3.2 | 3.2 | 0.00 | 0.00 | 0.00 | 43 | 1015.2 |
| 20260905235401 | 34 | 341 | 1.6 | 3.2 | 0.00 | 0.00 | 0.00 | 43 | 1015.2 |
| 20260905235301 | 34 | 344 | 3.2 | 3.2 | 0.00 | 0.00 | 0.00 | 43 | 1015.2 |
| 20260905235201 | 34 | 332 | 3.2 | 3.2 | 0.00 | 0.00 | 0.00 | 43 | 1015.2 |
| 20260905235102 | 34 | 336 | 0.0 | 3.2 | 0.00 | 0.00 | 0.00 | 43 | 1015.2 |
| 20260905235001 | 34 | 351 | 0.0 | 3.2 | 0.00 | 0.00 | 0.00 | 43 | 1015.1 |
| 20260905234901 | 34 | 357 | 1.6 | 3.2 | 0.00 | 0.00 | 0.00 | 43 | 1015.1 |
| 20260905234804 | 34 | 2 | 3.2 | 3.2 | 0.00 | 0.00 | 0.00 | 43 | 1015.1 |
| 20260905234601 | 34 | 6 | 1.6 | 3.2 | 0.00 | 0.00 | 0.00 | 43 | 1015.1 |
| 20260905234501 | 34 | 7 | 1.6 | 3.2 | 0.00 | 0.00 | 0.00 | 43 | 1015.2 |
| 20260905234402 | 34 | 12 | 0.0 | 3.2 | 0.00 | 0.00 | 0.00 | 42 | 1015.1 |
| 20260905234301 | 34 | 10 | 0.0 | 3.2 | 0.00 | 0.00 | 0.00 | 42 | 1015.0 |
| 20260905234201 | 34 | 13 | 0.0 | 3.2 | 0.00 | 0.00 | 0.00 | 42 | 1015.1 |
| 20260905234101 | 34 | 13 | 0.0 | 3.2 | 0.00 | 0.00 | 0.00 | 42 | 1015.1 |
| 20260905234001 | 34 | 9 | 1.6 | 3.2 | 0.00 | 0.00 | 0.00 | 42 | 1015.0 |
| 20260905233901 | 35 | 357 | 1.6 | 3.2 | 0.00 | 0.00 | 0.00 | 42 | 1015.1 |
| 20260905233802 | 35 | 351 | 1.6 | 3.2 | 0.00 | 0.00 | 0.00 | 43 | 1015.0 |
| 20260905233701 | 35 | 351 | 1.6 | 3.2 | 0.00 | 0.00 | 0.00 | 43 | 1015.1 |
| 20260905233501 | 35 | 354 | 3.2 | 3.2 | 0.00 | 0.00 | 0.00 | 42 | 1015.0 |
| 20260905233401 | 35 | 349 | 0.0 | 3.2 | 0.00 | 0.00 | 0.00 | 42 | 1015.0 |
| 20260905233001 | 35 | 348 | 0.0 | 3.2 | 0.00 | 0.00 | 0.00 | 42 | 1015.1 |
| 20260905232901 | 35 | 349 | 3.2 | 3.2 | 0.00 | 0.00 | 0.00 | 42 | 1015.0 |
| 20260905232802 | 35 | 353 | 1.6 | 4.8 | 0.00 | 0.00 | 0.00 | 42 | 1014.9 |
| 20260905232702 | 35 | 345 | 1.6 | 4.8 | 0.00 | 0.00 | 0.00 | 41 | 1015.0 |
| 20260905232601 | 35 | 324 | 0.0 | 4.8 | 0.00 | 0.00 | 0.00 | 41 | 1015.0 |
| 20260905232501 | 35 | 309 | 0.0 | 4.8 | 0.00 | 0.00 | 0.00 | 41 | 1015.0 |
| 20260905232401 | 35 | 291 | 0.0 | 4.8 | 0.00 | 0.00 | 0.00 | 41 | 1015.1 |
| 20260905232305 | 35 | 259 | 0.0 | 4.8 | 0.00 | 0.00 | 0.00 | 41 | 1015.0 |
| 20260905232201 | 35 | 237 | 3.2 | 4.8 | 0.00 | 0.00 | 0.00 | 41 | 1015.0 |
| 20260905232101 | 35 | 225 | 3.2 | 4.8 | 0.00 | 0.00 | 0.00 | 41 | 1015.1 |
| 20260905232001 | 35 | 221 | 1.6 | 4.8 | 0.00 | 0.00 | 0.00 | 41 | 1015.0 |
| 20260905231901 | 35 | 213 | 3.2 | 4.8 | 0.00 | 0.00 | 0.00 | 40 | 1015.0 |
| 20260905231601 | 35 | 227 | 3.2 | 4.8 | 0.00 | 0.00 | 0.00 | 40 | 1014.9 |
| 20260905231502 | 35 | 252 | 4.8 | 4.8 | 0.00 | 0.00 | 0.00 | 39 | 1015.0 |
| 20260905231301 | 35 | 316 | 1.6 | 3.2 | 0.00 | 0.00 | 0.00 | 35 | 1014.9 |
| 20260905231201 | 35 | 323 | 0.0 | 3.2 | 0.00 | 0.00 | 0.00 | 34 | 1015.0 |
| 20260905231101 | 35 | 324 | 0.0 | 3.2 | 0.00 | 0.00 | 0.00 | 33 | 1015.0 |
| 20260905231001 | 35 | 332 | 0.0 | 3.2 | 0.00 | 0.00 | 0.00 | 33 | 1015.1 |
| 20260905230901 | 35 | 94 | 1.6 | 4.8 | 0.00 | 0.00 | 0.00 | 33 | 1015.0 |
| 20260905230802 | 35 | 106 | 1.6 | 4.8 | 0.00 | 0.00 | 0.00 | 33 | 1015.1 |
| 20260905230701 | 35 | 108 | 1.6 | 4.8 | 0.00 | 0.00 | 0.00 | 33 | 1015.1 |
| 20260905230501 | 35 | 113 | 0.0 | 4.8 | 0.00 | 0.00 | 0.00 | 33 | 1015.0 |
| 20260905230401 | 35 | 115 | 0.0 | 4.8 | 0.00 | 0.00 | 0.00 | 33 | 1015.1 |
| 20260905230304 | 36 | 119 | 0.0 | 4.8 | 0.00 | 0.00 | 0.00 | 33 | 1015.0 |
| 20260905230201 | 36 | 124 | 0.0 | 4.8 | 0.00 | 0.00 | 0.00 | 33 | 1015.0 |
| 20260905230001 | 36 | 143 | 1.6 | 4.8 | 0.00 | 0.00 | 0.00 | 33 | 1015.0 |
| 20260905225902 | 36 | 151 | 3.2 | 4.8 | 0.00 | 0.00 | 0.00 | 33 | 1014.9 |
| 20260905225801 | 36 | 154 | 1.6 | 4.8 | 0.00 | 0.00 | 0.00 | 33 | 1014.9 |
| 20260905225701 | 36 | 156 | 0.0 | 4.8 | 0.00 | 0.00 | 0.00 | 33 | 1015.1 |
| 20260905225601 | 36 | 146 | 0.0 | 6.4 | 0.00 | 0.00 | 0.00 | 33 | 1014.9 |
| 20260905225501 | 36 | 137 | 0.0 | 6.4 | 0.00 | 0.00 | 0.00 | 32 | 1015.0 |
| 20260905225401 | 36 | 131 | 0.0 | 6.4 | 0.00 | 0.00 | 0.00 | 32 | 1014.8 |
| 20260905225301 | 36 | 125 | 1.6 | 6.4 | 0.00 | 0.00 | 0.00 | 32 | 1015.0 |
| 20260905225202 | 36 | 120 | 3.2 | 6.4 | 0.00 | 0.00 | 0.00 | 32 | 1014.8 |
| 20260905225101 | 36 | 111 | 3.2 | 6.4 | 0.00 | 0.00 | 0.00 | 32 | 1014.9 |
| 20260905225001 | 36 | 102 | 3.2 | 6.4 | 0.00 | 0.00 | 0.00 | 32 | 1014.8 |
| 20260905224901 | 36 | 95 | 3.2 | 6.4 | 0.00 | 0.00 | 0.00 | 32 | 1014.9 |
| 20260905224804 | 36 | 91 | 3.2 | 6.4 | 0.00 | 0.00 | 0.00 | 32 | 1014.9 |
| 20260905224701 | 36 | 90 | 1.6 | 6.4 | 0.00 | 0.00 | 0.00 | 32 | 1015.0 |
| 20260905224501 | 36 | 90 | 3.2 | 6.4 | 0.00 | 0.00 | 0.00 | 31 | 1014.9 |
| 20260905224401 | 36 | 90 | 4.8 | 6.4 | 0.00 | 0.00 | 0.00 | 31 | 1014.9 |
| 20260905224302 | 36 | 95 | 3.2 | 6.4 | 0.00 | 0.00 | 0.00 | 32 | 1014.9 |
| 20260905224202 | 36 | 101 | 3.2 | 6.4 | 0.00 | 0.00 | 0.00 | 31 | 1014.8 |
| 20260905224101 | 36 | 108 | 3.2 | 6.4 | 0.00 | 0.00 | 0.00 | 31 | 1014.9 |
| 20260905224001 | 36 | 112 | 3.2 | 6.4 | 0.00 | 0.00 | 0.00 | 31 | 1014.9 |
| 20260905223901 | 36 | 114 | 4.8 | 6.4 | 0.00 | 0.00 | 0.00 | 31 | 1015.0 |
| 20260905223802 | 36 | 120 | 3.2 | 6.4 | 0.00 | 0.00 | 0.00 | 32 | 1014.9 |
| 20260905223701 | 36 | 123 | 1.6 | 6.4 | 0.00 | 0.00 | 0.00 | 32 | 1014.9 |
| 20260905223601 | 36 | 132 | 3.2 | 6.4 | 0.00 | 0.00 | 0.00 | 32 | 1015.0 |
| 20260905223401 | 36 | 135 | 3.2 | 6.4 | 0.00 | 0.00 | 0.00 | 31 | 1014.9 |
| 20260905223304 | 36 | 139 | 3.2 | 6.4 | 0.00 | 0.00 | 0.00 | 31 | 1014.9 |
| 20260905223201 | 36 | 141 | 6.4 | 6.4 | 0.00 | 0.00 | 0.00 | 31 | 1014.9 |
| 20260905223101 | 36 | 152 | 4.8 | 6.4 | 0.00 | 0.00 | 0.00 | 32 | 1015.0 |
| 20260905223001 | 36 | 168 | 3.2 | 3.2 | 0.00 | 0.00 | 0.00 | 32 | 1014.8 |
| 20260905222901 | 36 | 189 | 1.6 | 3.2 | 0.00 | 0.00 | 0.00 | 32 | 1015.0 |
| 20260905222802 | 36 | 194 | 0.0 | 3.2 | 0.00 | 0.00 | 0.00 | 32 | 1014.9 |
| 20260905222701 | 36 | 194 | 0.0 | 3.2 | 0.00 | 0.00 | 0.00 | 31 | 1015.0 |
| 20260905222501 | 36 | 183 | 1.6 | 4.8 | 0.00 | 0.00 | 0.00 | 31 | 1015.0 |
| 20260905222401 | 36 | 171 | 1.6 | 4.8 | 0.00 | 0.00 | 0.00 | 31 | 1015.0 |
| 20260905222202 | 36 | 147 | 1.6 | 4.8 | 0.00 | 0.00 | 0.00 | 32 | 1015.0 |
| 20260905222101 | 36 | 136 | 1.6 | 4.8 | 0.00 | 0.00 | 0.00 | 32 | 1015.2 |
| 20260905221901 | 36 | 130 | 0.0 | 4.8 | 0.00 | 0.00 | 0.00 | 33 | 1015.0 |
| 20260905221804 | 36 | 135 | 0.0 | 4.8 | 0.00 | 0.00 | 0.00 | 32 | 1015.1 |
| 20260905221701 | 36 | 140 | 0.0 | 4.8 | 0.00 | 0.00 | 0.00 | 32 | 1015.1 |
| 20260905221601 | 36 | 142 | 1.6 | 4.8 | 0.00 | 0.00 | 0.00 | 32 | 1015.2 |
| 20260905221501 | 36 | 143 | 3.2 | 4.8 | 0.00 | 0.00 | 0.00 | 32 | 1015.1 |
| 20260905221402 | 36 | 150 | 3.2 | 3.2 | 0.00 | 0.00 | 0.00 | 32 | 1015.2 |
| 20260905221201 | 36 | 158 | 1.6 | 3.2 | 0.00 | 0.00 | 0.00 | 32 | 1015.1 |
| 20260905221101 | 36 | 163 | 1.6 | 3.2 | 0.00 | 0.00 | 0.00 | 32 | 1015.1 |
| 20260905221001 | 36 | 171 | 1.6 | 3.2 | 0.00 | 0.00 | 0.00 | 32 | 1015.2 |
| 20260905220901 | 36 | 165 | 1.6 | 3.2 | 0.00 | 0.00 | 0.00 | 32 | 1015.2 |
| 20260905220702 | 36 | 92 | 3.2 | 6.4 | 0.00 | 0.00 | 0.00 | 31 | 1015.1 |
| 20260905220602 | 36 | 90 | 0.0 | 6.4 | 0.00 | 0.00 | 0.00 | 30 | 1015.3 |
| 20260905220501 | 36 | 101 | 0.0 | 6.4 | 0.00 | 0.00 | 0.00 | 30 | 1015.1 |
| 20260905220401 | 36 | 117 | 0.0 | 6.4 | 0.00 | 0.00 | 0.00 | 30 | 1015.2 |
| 20260905220304 | 36 | 126 | 0.0 | 6.4 | 0.00 | 0.00 | 0.00 | 30 | 1015.2 |
| 20260905220201 | 36 | 135 | 0.0 | 6.4 | 0.00 | 0.00 | 0.00 | 30 | 1015.2 |
| 20260905220001 | 36 | 137 | 0.0 | 6.4 | 0.00 | 0.00 | 0.00 | 30 | 1015.2 |
| 20260905215902 | 36 | 138 | 1.6 | 8.0 | 0.00 | 0.00 | 0.00 | 30 | 1015.2 |
| 20260905215701 | 36 | 140 | 4.8 | 8.0 | 0.00 | 0.00 | 0.00 | 30 | 1015.3 |
| 20260905215601 | 37 | 146 | 4.8 | 8.0 | 0.00 | 0.00 | 0.00 | 31 | 1015.4 |
| 20260905215501 | 37 | 144 | 3.2 | 8.0 | 0.00 | 0.00 | 0.00 | 31 | 1015.3 |
| 20260905215401 | 37 | 138 | 3.2 | 8.0 | 0.00 | 0.00 | 0.00 | 31 | 1015.3 |
| 20260905215202 | 37 | 136 | 3.2 | 8.0 | 0.00 | 0.00 | 0.00 | 31 | 1015.2 |
| 20260905215102 | 37 | 134 | 3.2 | 8.0 | 0.00 | 0.00 | 0.00 | 30 | 1015.3 |
| 20260905215001 | 37 | 133 | 3.2 | 8.0 | 0.00 | 0.00 | 0.00 | 30 | 1015.3 |
| 20260905214902 | 37 | 130 | 6.4 | 8.0 | 0.00 | 0.00 | 0.00 | 30 | 1015.3 |
| 20260905214804 | 37 | 125 | 4.8 | 8.0 | 0.00 | 0.00 | 0.00 | 30 | 1015.3 |
| 20260905214701 | 37 | 129 | 3.2 | 8.0 | 0.00 | 0.00 | 0.00 | 30 | 1015.4 |
| 20260905214602 | 37 | 125 | 3.2 | 8.0 | 0.00 | 0.00 | 0.00 | 30 | 1015.3 |
| 20260905214502 | 37 | 120 | 3.2 | 8.0 | 0.00 | 0.00 | 0.00 | 30 | 1015.4 |
| 20260905214401 | 37 | 124 | 1.6 | 8.0 | 0.00 | 0.00 | 0.00 | 30 | 1015.3 |
| 20260905214301 | 37 | 99 | 3.2 | 9.7 | 0.00 | 0.00 | 0.00 | 30 | 1015.4 |
| 20260905214201 | 37 | 76 | 3.2 | 9.7 | 0.00 | 0.00 | 0.00 | 31 | 1015.4 |
| 20260905214101 | 37 | 75 | 4.8 | 9.7 | 0.00 | 0.00 | 0.00 | 30 | 1015.4 |
| 20260905214001 | 37 | 75 | 3.2 | 9.7 | 0.00 | 0.00 | 0.00 | 28 | 1015.5 |
| 20260905213902 | 37 | 78 | 3.2 | 9.7 | 0.00 | 0.00 | 0.00 | 28 | 1015.5 |
| 20260905213801 | 37 | 102 | 6.4 | 9.7 | 0.00 | 0.00 | 0.00 | 27 | 1015.5 |
| 20260905213701 | 37 | 103 | 4.8 | 9.7 | 0.00 | 0.00 | 0.00 | 28 | 1015.4 |
| 20260905213501 | 37 | 117 | 3.2 | 9.7 | 0.00 | 0.00 | 0.00 | 28 | 1015.4 |
| 20260905213304 | 37 | 143 | 6.4 | 9.7 | 0.00 | 0.00 | 0.00 | 27 | 1015.5 |
| 20260905213002 | 38 | 147 | 3.2 | 6.4 | 0.00 | 0.00 | 0.00 | 27 | 1015.6 |
| 20260905212901 | 38 | 131 | 3.2 | 6.4 | 0.00 | 0.00 | 0.00 | 27 | 1015.4 |
| 20260905212801 | 38 | 134 | 3.2 | 6.4 | 0.00 | 0.00 | 0.00 | 27 | 1015.6 |
| 20260905212701 | 38 | 135 | 3.2 | 6.4 | 0.00 | 0.00 | 0.00 | 27 | 1015.5 |
| 20260905212501 | 38 | 151 | 1.6 | 6.4 | 0.00 | 0.00 | 0.00 | 27 | 1015.6 |
| 20260905212402 | 38 | 150 | 3.2 | 6.4 | 0.00 | 0.00 | 0.00 | 27 | 1015.6 |
| 20260905212301 | 38 | 134 | 3.2 | 6.4 | 0.00 | 0.00 | 0.00 | 28 | 1015.6 |
| 20260905212201 | 38 | 132 | 3.2 | 6.4 | 0.00 | 0.00 | 0.00 | 28 | 1015.6 |
| 20260905212101 | 38 | 142 | 3.2 | 6.4 | 0.00 | 0.00 | 0.00 | 28 | 1015.6 |
| 20260905212001 | 38 | 146 | 4.8 | 6.4 | 0.00 | 0.00 | 0.00 | 28 | 1015.6 |
| 20260905211902 | 38 | 156 | 3.2 | 6.4 | 0.00 | 0.00 | 0.00 | 28 | 1015.6 |
| 20260905211804 | 38 | 162 | 0.0 | 6.4 | 0.00 | 0.00 | 0.00 | 28 | 1015.6 |
| 20260905211702 | 38 | 157 | 1.6 | 6.4 | 0.00 | 0.00 | 0.00 | 29 | 1015.6 |
| 20260905211602 | 38 | 149 | 3.2 | 8.0 | 0.00 | 0.00 | 0.00 | 29 | 1015.7 |
| 20260905211501 | 38 | 151 | 3.2 | 8.0 | 0.00 | 0.00 | 0.00 | 28 | 1015.6 |
| 20260905211401 | 38 | 148 | 4.8 | 8.0 | 0.00 | 0.00 | 0.00 | 27 | 1015.6 |
| 20260905211301 | 38 | 146 | 4.8 | 8.0 | 0.00 | 0.00 | 0.00 | 28 | 1015.7 |
| 20260905211101 | 38 | 136 | 3.2 | 8.0 | 0.00 | 0.00 | 0.00 | 29 | 1015.6 |
| 20260905210902 | 38 | 132 | 4.8 | 8.0 | 0.00 | 0.00 | 0.00 | 28 | 1015.6 |
| 20260905210801 | 38 | 127 | 6.4 | 8.0 | 0.00 | 0.00 | 0.00 | 27 | 1015.6 |
| 20260905210601 | 38 | 125 | 4.8 | 6.4 | 0.00 | 0.00 | 0.00 | 28 | 1015.7 |
| 20260905210501 | 38 | 103 | 3.2 | 6.4 | 0.00 | 0.00 | 0.00 | 28 | 1015.6 |
| 20260905210402 | 38 | 109 | 3.2 | 6.4 | 0.00 | 0.00 | 0.00 | 28 | 1015.7 |
| 20260905210305 | 38 | 191 | 3.2 | 6.4 | 0.00 | 0.00 | 0.00 | 28 | 1015.7 |
| 20260905210202 | 38 | 215 | 1.6 | 6.4 | 0.00 | 0.00 | 0.00 | 28 | 1015.6 |
| 20260905205901 | 38 | 188 | 0.0 | 8.0 | 0.00 | 0.00 | 0.00 | 30 | 1015.6 |
| 20260905205801 | 38 | 171 | 0.0 | 8.0 | 0.00 | 0.00 | 0.00 | 29 | 1015.8 |
| 20260905205702 | 38 | 162 | 0.0 | 8.0 | 0.00 | 0.00 | 0.00 | 29 | 1015.8 |
| 20260905205601 | 38 | 164 | 1.6 | 8.0 | 0.00 | 0.00 | 0.00 | 28 | 1015.8 |
| 20260905205501 | 38 | 162 | 1.6 | 8.0 | 0.00 | 0.00 | 0.00 | 28 | 1015.8 |
| 20260905205401 | 38 | 156 | 4.8 | 8.0 | 0.00 | 0.00 | 0.00 | 28 | 1015.8 |
| 20260905205201 | 38 | 138 | 3.2 | 8.0 | 0.00 | 0.00 | 0.00 | 27 | 1015.8 |
| 20260905205101 | 38 | 136 | 1.6 | 8.0 | 0.00 | 0.00 | 0.00 | 28 | 1015.9 |
| 20260905205001 | 38 | 126 | 3.2 | 8.0 | 0.00 | 0.00 | 0.00 | 28 | 1015.8 |
| 20260905204902 | 38 | 121 | 6.4 | 8.0 | 0.00 | 0.00 | 0.00 | 28 | 1015.9 |
| 20260905204804 | 38 | 132 | 6.4 | 8.0 | 0.00 | 0.00 | 0.00 | 28 | 1015.9 |
| 20260905204701 | 38 | 158 | 3.2 | 6.4 | 0.00 | 0.00 | 0.00 | 28 | 1015.9 |
| 20260905204601 | 38 | 161 | 3.2 | 6.4 | 0.00 | 0.00 | 0.00 | 29 | 1015.9 |
| 20260905204502 | 38 | 125 | 1.6 | 11.3 | 0.00 | 0.00 | 0.00 | 28 | 1015.9 |
| 20260905204401 | 37 | 120 | 1.6 | 11.3 | 0.00 | 0.00 | 0.00 | 27 | 1015.9 |
| 20260905204301 | 37 | 121 | 1.6 | 11.3 | 0.00 | 0.00 | 0.00 | 27 | 1015.9 |
| 20260905204201 | 37 | 123 | 4.8 | 11.3 | 0.00 | 0.00 | 0.00 | 27 | 1016.0 |
| 20260905204101 | 37 | 125 | 1.6 | 11.3 | 0.00 | 0.00 | 0.00 | 28 | 1016.1 |
| 20260905203901 | 37 | 112 | 1.6 | 12.9 | 0.00 | 0.00 | 0.00 | 29 | 1016.0 |
| 20260905203801 | 37 | 125 | 3.2 | 12.9 | 0.00 | 0.00 | 0.00 | 28 | 1016.1 |
| 20260905203701 | 37 | 123 | 3.2 | 12.9 | 0.00 | 0.00 | 0.00 | 28 | 1016.0 |
| 20260905203601 | 37 | 110 | 4.8 | 12.9 | 0.00 | 0.00 | 0.00 | 28 | 1016.1 |
| 20260905203501 | 37 | 107 | 8.0 | 12.9 | 0.00 | 0.00 | 0.00 | 27 | 1016.1 |
| 20260905203402 | 37 | 97 | 3.2 | 12.9 | 0.00 | 0.00 | 0.00 | 27 | 1016.1 |
| 20260905203303 | 37 | 98 | 3.2 | 12.9 | 0.00 | 0.00 | 0.00 | 28 | 1016.0 |
| 20260905203202 | 38 | 107 | 3.2 | 12.9 | 0.00 | 0.00 | 0.00 | 28 | 1016.2 |
| 20260905202701 | 38 | 83 | 6.4 | 11.3 | 0.00 | 0.00 | 0.00 | 28 | 1016.3 |
| 20260905202402 | 38 | 246 | 6.4 | 11.3 | 0.00 | 0.00 | 0.00 | 29 | 1016.2 |
| 20260905202302 | 38 | 259 | 1.6 | 4.8 | 0.00 | 0.00 | 0.00 | 30 | 1016.3 |
| 20260905202201 | 38 | 280 | 3.2 | 4.8 | 0.00 | 0.00 | 0.00 | 30 | 1016.3 |
| 20260905202101 | 38 | 303 | 3.2 | 4.8 | 0.00 | 0.00 | 0.00 | 30 | 1016.3 |
| 20260905202001 | 38 | 349 | 3.2 | 4.8 | 0.00 | 0.00 | 0.00 | 30 | 1016.3 |
| 20260905201902 | 38 | 31 | 3.2 | 4.8 | 0.00 | 0.00 | 0.00 | 30 | 1016.4 |
| 20260905201804 | 38 | 47 | 3.2 | 4.8 | 0.00 | 0.00 | 0.00 | 29 | 1016.5 |
| 20260905201702 | 38 | 79 | 3.2 | 4.8 | 0.00 | 0.00 | 0.00 | 30 | 1016.5 |
| 20260905201501 | 38 | 61 | 0.0 | 4.8 | 0.00 | 0.00 | 0.00 | 30 | 1016.5 |
| 20260905201201 | 38 | 278 | 1.6 | 4.8 | 0.00 | 0.00 | 0.00 | 30 | 1016.4 |
| 20260905201101 | 38 | 270 | 1.6 | 4.8 | 0.00 | 0.00 | 0.00 | 30 | 1016.5 |
| 20260905201001 | 38 | 269 | 3.2 | 4.8 | 0.00 | 0.00 | 0.00 | 30 | 1016.4 |
| 20260905200901 | 38 | 266 | 3.2 | 4.8 | 0.00 | 0.00 | 0.00 | 30 | 1016.6 |
| 20260905200802 | 38 | 259 | 3.2 | 4.8 | 0.00 | 0.00 | 0.00 | 30 | 1016.5 |
| 20260905200702 | 38 | 267 | 3.2 | 6.4 | 0.00 | 0.00 | 0.00 | 30 | 1016.5 |
| 20260905200601 | 37 | 258 | 1.6 | 6.4 | 0.00 | 0.00 | 0.00 | 30 | 1016.7 |
| 20260905200501 | 37 | 250 | 1.6 | 6.4 | 0.00 | 0.00 | 0.00 | 30 | 1016.6 |
| 20260905200304 | 37 | 193 | 1.6 | 9.7 | 0.00 | 0.00 | 0.00 | 30 | 1016.5 |
| 20260905200201 | 37 | 178 | 1.6 | 9.7 | 0.00 | 0.00 | 0.00 | 30 | 1016.5 |
| 20260905200001 | 37 | 151 | 1.6 | 9.7 | 0.00 | 0.00 | 0.00 | 30 | 1016.6 |
| 20260905195901 | 37 | 139 | 0.0 | 9.7 | 0.00 | 0.00 | 0.00 | 30 | 1016.6 |
| 20260905195802 | 37 | 140 | 3.2 | 9.7 | 0.00 | 0.00 | 0.00 | 30 | 1016.7 |
| 20260905195701 | 37 | 142 | 3.2 | 9.7 | 0.00 | 0.00 | 0.00 | 30 | 1016.8 |
| 20260905195501 | 37 | 147 | 3.2 | 9.7 | 0.00 | 0.00 | 0.00 | 30 | 1016.7 |
| 20260905195301 | 37 | 137 | 4.8 | 9.7 | 0.00 | 0.00 | 0.00 | 30 | 1016.8 |
| 20260905195202 | 37 | 127 | 6.4 | 9.7 | 0.00 | 0.00 | 0.00 | 30 | 1016.6 |
| 20260905195102 | 37 | 131 | 6.4 | 11.3 | 0.00 | 0.00 | 0.00 | 30 | 1016.7 |
| 20260905195001 | 37 | 133 | 8.0 | 11.3 | 0.00 | 0.00 | 0.00 | 30 | 1016.7 |
| 20260905194901 | 37 | 140 | 3.2 | 11.3 | 0.00 | 0.00 | 0.00 | 30 | 1016.7 |
| 20260905194802 | 37 | 132 | 4.8 | 11.3 | 0.00 | 0.00 | 0.00 | 30 | 1016.6 |
| 20260905194701 | 37 | 128 | 4.8 | 11.3 | 0.00 | 0.00 | 0.00 | 29 | 1016.6 |
| 20260905194502 | 37 | 124 | 6.4 | 11.3 | 0.00 | 0.00 | 0.00 | 28 | 1016.7 |
| 20260905194401 | 37 | 131 | 6.4 | 11.3 | 0.00 | 0.00 | 0.00 | 28 | 1016.8 |
| 20260905194301 | 37 | 131 | 4.8 | 11.3 | 0.00 | 0.00 | 0.00 | 30 | 1016.7 |
| 20260905194201 | 37 | 140 | 6.4 | 11.3 | 0.00 | 0.00 | 0.00 | 29 | 1016.7 |
| 20260905194101 | 37 | 143 | 6.4 | 8.0 | 0.00 | 0.00 | 0.00 | 29 | 1016.7 |
| 20260905194002 | 37 | 138 | 6.4 | 8.0 | 0.00 | 0.00 | 0.00 | 29 | 1016.7 |
| 20260905193902 | 37 | 138 | 3.2 | 6.4 | 0.00 | 0.00 | 0.00 | 30 | 1016.9 |
| 20260905193801 | 38 | 144 | 3.2 | 6.4 | 0.00 | 0.00 | 0.00 | 30 | 1016.8 |
| 20260905193401 | 38 | 117 | 4.8 | 6.4 | 0.00 | 0.00 | 0.00 | 30 | 1016.8 |
| 20260905193202 | 38 | 109 | 6.4 | 8.0 | 0.00 | 0.00 | 0.00 | 30 | 1016.8 |
| 20260905193101 | 38 | 104 | 6.4 | 8.0 | 0.00 | 0.00 | 0.00 | 30 | 1016.8 |
| 20260905193001 | 38 | 110 | 3.2 | 8.0 | 0.00 | 0.00 | 0.00 | 30 | 1016.9 |
| 20260905192901 | 38 | 108 | 6.4 | 8.0 | 0.00 | 0.00 | 0.00 | 30 | 1016.8 |
| 20260905192801 | 38 | 110 | 3.2 | 8.0 | 0.00 | 0.00 | 0.00 | 31 | 1016.8 |
| 20260905192702 | 37 | 111 | 3.2 | 8.0 | 0.00 | 0.00 | 0.00 | 31 | 1016.9 |
| 20260905192601 | 37 | 107 | 3.2 | 8.0 | 0.00 | 0.00 | 0.00 | 30 | 1016.9 |
| 20260905192502 | 37 | 111 | 4.8 | 8.0 | 0.00 | 0.00 | 0.00 | 30 | 1016.8 |
| 20260905192401 | 37 | 122 | 4.8 | 8.0 | 0.00 | 0.00 | 0.00 | 30 | 1016.8 |
| 20260905192301 | 38 | 125 | 6.4 | 8.0 | 0.00 | 0.00 | 0.00 | 30 | 1016.9 |
| 20260905192201 | 38 | 137 | 6.4 | 8.0 | 0.00 | 0.00 | 0.00 | 30 | 1016.8 |
| 20260905192102 | 38 | 135 | 6.4 | 8.0 | 0.00 | 0.00 | 0.00 | 30 | 1016.8 |
| 20260905192002 | 38 | 138 | 3.2 | 8.0 | 0.00 | 0.00 | 0.00 | 30 | 1016.8 |
| 20260905191901 | 38 | 133 | 3.2 | 11.3 | 0.00 | 0.00 | 0.00 | 30 | 1016.8 |
| 20260905191701 | 38 | 143 | 3.2 | 11.3 | 0.00 | 0.00 | 0.00 | 30 | 1016.9 |
| 20260905191501 | 38 | 141 | 3.2 | 11.3 | 0.00 | 0.00 | 0.00 | 31 | 1016.9 |
| 20260905191402 | 37 | 133 | 3.2 | 11.3 | 0.00 | 0.00 | 0.00 | 31 | 1016.9 |
| 20260905191201 | 37 | 133 | 4.8 | 11.3 | 0.00 | 0.00 | 0.00 | 31 | 1017.0 |
| 20260905191101 | 37 | 136 | 3.2 | 11.3 | 0.00 | 0.00 | 0.00 | 30 | 1016.9 |
| 20260905191001 | 38 | 120 | 6.4 | 11.3 | 0.00 | 0.00 | 0.00 | 31 | 1016.9 |
| 20260905190902 | 38 | 120 | 6.4 | 11.3 | 0.00 | 0.00 | 0.00 | 30 | 1017.1 |
| 20260905190804 | 38 | 116 | 6.4 | 11.3 | 0.00 | 0.00 | 0.00 | 31 | 1017.0 |
| 20260905190702 | 38 | 114 | 6.4 | 11.3 | 0.00 | 0.00 | 0.00 | 31 | 1017.0 |
| 20260905190602 | 38 | 125 | 3.2 | 11.3 | 0.00 | 0.00 | 0.00 | 31 | 1017.1 |
| 20260905190501 | 38 | 127 | 6.4 | 11.3 | 0.00 | 0.00 | 0.00 | 31 | 1016.9 |
| 20260905190401 | 37 | 139 | 3.2 | 11.3 | 0.00 | 0.00 | 0.00 | 31 | 1017.0 |
| 20260905190301 | 37 | 136 | 4.8 | 11.3 | 0.00 | 0.00 | 0.00 | 31 | 1017.0 |
| 20260905190201 | 37 | 139 | 3.2 | 11.3 | 0.00 | 0.00 | 0.00 | 31 | 1017.1 |
| 20260905190001 | 37 | 143 | 4.8 | 11.3 | 0.00 | 0.00 | 0.00 | 31 | 1017.0 |
| 20260905185901 | 37 | 153 | 4.8 | 11.3 | 0.00 | 0.00 | 0.00 | 30 | 1017.0 |
| 20260905185801 | 37 | 167 | 8.0 | 11.3 | 0.00 | 0.00 | 0.00 | 30 | 1017.2 |
| 20260905185701 | 37 | 176 | 4.8 | 6.4 | 0.00 | 0.00 | 0.00 | 31 | 1017.2 |
| 20260905185202 | 37 | 151 | 3.2 | 6.4 | 0.00 | 0.00 | 0.00 | 31 | 1017.2 |
| 20260905185101 | 37 | 173 | 3.2 | 6.4 | 0.00 | 0.00 | 0.00 | 31 | 1017.2 |
| 20260905185001 | 37 | 190 | 3.2 | 6.4 | 0.00 | 0.00 | 0.00 | 31 | 1017.2 |
| 20260905184901 | 37 | 173 | 1.6 | 6.4 | 0.00 | 0.00 | 0.00 | 31 | 1017.2 |
| 20260905184801 | 37 | 168 | 0.0 | 6.4 | 0.00 | 0.00 | 0.00 | 32 | 1017.2 |
| 20260905184602 | 37 | 168 | 1.6 | 6.4 | 0.00 | 0.00 | 0.00 | 31 | 1017.2 |
| 20260905184502 | 37 | 150 | 1.6 | 6.4 | 0.00 | 0.00 | 0.00 | 31 | 1017.2 |
| 20260905184401 | 37 | 152 | 1.6 | 6.4 | 0.00 | 0.00 | 0.00 | 31 | 1017.3 |
| 20260905184301 | 37 | 144 | 3.2 | 6.4 | 0.00 | 0.00 | 0.00 | 31 | 1017.4 |
| 20260905184201 | 37 | 135 | 3.2 | 6.4 | 0.00 | 0.00 | 0.00 | 34 | 1017.2 |
| 20260905184101 | 37 | 119 | 4.8 | 6.4 | 0.00 | 0.00 | 0.00 | 34 | 1017.2 |
| 20260905184001 | 37 | 123 | 3.2 | 6.4 | 0.00 | 0.00 | 0.00 | 35 | 1017.2 |
| 20260905183902 | 37 | 166 | 1.6 | 6.4 | 0.00 | 0.00 | 0.00 | 35 | 1017.2 |
| 20260905183804 | 36 | 122 | 1.6 | 6.4 | 0.00 | 0.00 | 0.00 | 35 | 1017.2 |
| 20260905183702 | 36 | 118 | 1.6 | 6.4 | 0.00 | 0.00 | 0.00 | 35 | 1017.4 |
| 20260905183601 | 36 | 125 | 1.6 | 6.4 | 0.00 | 0.00 | 0.00 | 35 | 1017.3 |
| 20260905183202 | 36 | 44 | 3.2 | 6.4 | 0.00 | 0.00 | 0.00 | 35 | 1017.3 |
| 20260905183102 | 36 | 303 | 1.6 | 6.4 | 0.00 | 0.00 | 0.00 | 35 | 1017.5 |
| 20260905182901 | 36 | 66 | 3.2 | 4.8 | 0.00 | 0.00 | 0.00 | 37 | 1017.5 |
| 20260905182801 | 36 | 241 | 3.2 | 4.8 | 0.00 | 0.00 | 0.00 | 37 | 1017.5 |
| 20260905182701 | 36 | 157 | 0.0 | 4.8 | 0.00 | 0.00 | 0.00 | 37 | 1017.5 |
| 20260905182602 | 36 | 146 | 0.0 | 4.8 | 0.00 | 0.00 | 0.00 | 36 | 1017.5 |
| 20260905182501 | 36 | 162 | 1.6 | 6.4 | 0.00 | 0.00 | 0.00 | 36 | 1017.5 |
| 20260905182401 | 36 | 179 | 3.2 | 6.4 | 0.00 | 0.00 | 0.00 | 36 | 1017.6 |
| 20260905182306 | 36 | 184 | 0.0 | 6.4 | 0.00 | 0.00 | 0.00 | 36 | 1017.6 |
| 20260905182201 | 36 | 177 | 0.0 | 6.4 | 0.00 | 0.00 | 0.00 | 36 | 1017.5 |
| 20260905182101 | 36 | 171 | 1.6 | 6.4 | 0.00 | 0.00 | 0.00 | 36 | 1017.6 |
| 20260905181902 | 36 | 144 | 3.2 | 8.0 | 0.00 | 0.00 | 0.00 | 35 | 1017.6 |
| 20260905181802 | 36 | 140 | 3.2 | 8.0 | 0.00 | 0.00 | 0.00 | 35 | 1017.6 |
| 20260905181701 | 36 | 148 | 3.2 | 8.0 | 0.00 | 0.00 | 0.00 | 36 | 1017.7 |
| 20260905181601 | 36 | 151 | 3.2 | 8.0 | 0.00 | 0.00 | 0.00 | 35 | 1017.7 |
| 20260905181501 | 36 | 150 | 4.8 | 8.0 | 0.00 | 0.00 | 0.00 | 35 | 1017.5 |
| 20260905181302 | 35 | 152 | 3.2 | 8.0 | 0.00 | 0.00 | 0.00 | 35 | 1017.8 |
| 20260905181201 | 35 | 155 | 3.2 | 8.0 | 0.00 | 0.00 | 0.00 | 35 | 1017.7 |
| 20260905181101 | 35 | 158 | 3.2 | 8.0 | 0.00 | 0.00 | 0.00 | 34 | 1017.7 |
| 20260905181001 | 36 | 166 | 6.4 | 8.0 | 0.00 | 0.00 | 0.00 | 34 | 1017.8 |
| 20260905180702 | 36 | 185 | 3.2 | 6.4 | 0.00 | 0.00 | 0.00 | 35 | 1017.8 |
| 20260905180601 | 36 | 187 | 3.2 | 6.4 | 0.00 | 0.00 | 0.00 | 34 | 1017.9 |
| 20260905180501 | 36 | 181 | 3.2 | 6.4 | 0.00 | 0.00 | 0.00 | 34 | 1017.9 |
| 20260905180401 | 36 | 179 | 3.2 | 6.4 | 0.00 | 0.00 | 0.00 | 34 | 1017.9 |
| 20260905180201 | 36 | 186 | 3.2 | 6.4 | 0.00 | 0.00 | 0.00 | 34 | 1017.9 |
| 20260905180002 | 36 | 173 | 3.2 | 6.4 | 0.00 | 0.00 | 0.00 | 34 | 1017.9 |
| 20260905175901 | 36 | 172 | 3.2 | 8.0 | 0.00 | 0.00 | 0.00 | 34 | 1017.9 |
| 20260905175801 | 36 | 165 | 3.2 | 8.0 | 0.00 | 0.00 | 0.00 | 34 | 1018.0 |
| 20260905175701 | 36 | 150 | 3.2 | 8.0 | 0.00 | 0.00 | 0.00 | 34 | 1018.0 |
| 20260905175402 | 37 | 129 | 6.4 | 11.3 | 0.00 | 0.00 | 0.00 | 34 | 1018.0 |